JAL5 KJFK-RJAA

Flight info

Callsign JAL5
Flight time N/A
Altitude 31000
Route GREKI DCT JUDDS DCT CAM DCT 45N073W 50N074W DCT VEPTU/N0495F320 DCT 58N077W 67N090W 70N100W/N0489F340 72N110W 73N120W 73N130W DCT TAYTA DCT 70N150W DCT OTZ/N0490F360 DCT JUJXI DCT MARCC R338 NATES/N0498F370 R220 NIKLL/N0500F380 R220 NOGAL/N0492F390 R220 NUBDA/N0499F400 R220 NANAC Y810 OLDIV Y809 SUPOK
Aircraft B744/H-SDE3FGHIM1M2RWXY/LB1

Departure

Time 2026-05-08 15:37
Airport John F. Kennedy International Airport (KJFK)

Arrival

Time N/A
Airport Narita International Airport (RJAA)
Time Latitude Longitude Altitude Speed Heading
2026-05-08 14:46 40.64375 -73.79227 26 ft 0 kts 44°
2026-05-08 15:19 40.64368 -73.79235 26 ft 4 kts 43°
2026-05-08 15:19 40.64349 -73.79259 26 ft 4 kts 41°
2026-05-08 15:19 40.64328 -73.79282 26 ft 4 kts 39°
2026-05-08 15:19 40.64307 -73.79304 26 ft 4 kts 38°
2026-05-08 15:20 40.64285 -73.79326 26 ft 4 kts 36°
2026-05-08 15:20 40.64263 -73.79346 26 ft 4 kts 33°
2026-05-08 15:20 40.64240 -73.79365 26 ft 4 kts 30°
2026-05-08 15:20 40.64217 -73.79382 26 ft 4 kts 23°
2026-05-08 15:21 40.64195 -73.79393 26 ft 1 kts 14°
2026-05-08 15:21 40.64171 -73.79400 26 ft 4 kts
2026-05-08 15:21 40.64144 -73.79405 26 ft 4 kts
2026-05-08 15:21 40.64128 -73.79407 26 ft 0 kts
2026-05-08 15:27 40.64141 -73.79405 26 ft 4 kts
2026-05-08 15:27 40.64181 -73.79394 26 ft 7 kts 17°
2026-05-08 15:27 40.64221 -73.79403 26 ft 4 kts 304°
2026-05-08 15:27 40.64219 -73.79441 26 ft 5 kts 244°
2026-05-08 15:28 40.64199 -73.79501 26 ft 8 kts 251°
2026-05-08 15:28 40.64183 -73.79567 26 ft 7 kts 251°
2026-05-08 15:28 40.64166 -73.79611 26 ft 4 kts 211°
2026-05-08 15:28 40.64126 -73.79615 26 ft 8 kts 171°
2026-05-08 15:29 40.64067 -73.79595 26 ft 9 kts 158°
2026-05-08 15:29 40.64013 -73.79553 26 ft 10 kts 141°
2026-05-08 15:29 40.63971 -73.79480 26 ft 11 kts 118°
2026-05-08 15:29 40.63923 -73.79372 26 ft 15 kts 121°
2026-05-08 15:30 40.63870 -73.79256 26 ft 14 kts 121°
2026-05-08 15:30 40.63821 -73.79148 26 ft 13 kts 121°
2026-05-08 15:30 40.63774 -73.79046 26 ft 13 kts 121°
2026-05-08 15:30 40.63724 -73.78935 26 ft 16 kts 121°
2026-05-08 15:31 40.63665 -73.78805 26 ft 16 kts 120°
2026-05-08 15:31 40.63609 -73.78682 26 ft 15 kts 121°
2026-05-08 15:31 40.63556 -73.78566 26 ft 14 kts 121°
2026-05-08 15:31 40.63507 -73.78457 26 ft 13 kts 121°
2026-05-08 15:32 40.63461 -73.78355 26 ft 13 kts 121°
2026-05-08 15:32 40.63416 -73.78256 26 ft 12 kts 121°
2026-05-08 15:32 40.63373 -73.78162 26 ft 12 kts 121°
2026-05-08 15:32 40.63336 -73.78072 26 ft 11 kts 110°
2026-05-08 15:33 40.63328 -73.77963 26 ft 13 kts 81°
2026-05-08 15:33 40.63341 -73.77875 26 ft 9 kts 104°
2026-05-08 15:33 40.63292 -73.77770 26 ft 18 kts 120°
2026-05-08 15:33 40.63222 -73.77616 26 ft 20 kts 121°
2026-05-08 15:34 40.63153 -73.77463 26 ft 19 kts 121°
2026-05-08 15:34 40.63087 -73.77319 26 ft 18 kts 121°
2026-05-08 15:34 40.63025 -73.77181 26 ft 17 kts 120°
2026-05-08 15:34 40.62983 -73.77089 26 ft 7 kts 126°
2026-05-08 15:35 40.62937 -73.77094 26 ft 8 kts 212°
2026-05-08 15:35 40.62888 -73.77133 26 ft 8 kts 211°
2026-05-08 15:35 40.62838 -73.77172 26 ft 9 kts 211°
2026-05-08 15:35 40.62810 -73.77203 26 ft 2 kts 259°
2026-05-08 15:36 40.62813 -73.77214 26 ft 0 kts 302°
2026-05-08 15:36 40.62879 -73.77354 26 ft 38 kts 300°
2026-05-08 15:36 40.63120 -73.77886 26 ft 97 kts 300°
2026-05-08 15:37 40.63566 -73.78874 26 ft 152 kts 301°
2026-05-08 15:37 40.64193 -73.80255 45 ft 195 kts 300°
2026-05-08 15:37 40.64881 -73.81806 499 ft 196 kts 300°
2026-05-08 15:37 40.65455 -73.83434 1004 ft 200 kts 279°
2026-05-08 15:38 40.65146 -73.85217 1361 ft 205 kts 243°
2026-05-08 15:38 40.64289 -73.86693 1925 ft 202 kts 233°
2026-05-08 15:38 40.63236 -73.87970 2163 ft 212 kts 218°
2026-05-08 15:38 40.61845 -73.88706 2358 ft 224 kts 194°
2026-05-08 15:39 40.60288 -73.88455 2585 ft 231 kts 162°
2026-05-08 15:39 40.59016 -73.87163 2835 ft 236 kts 133°
2026-05-08 15:39 40.58342 -73.85199 3071 ft 238 kts 105°
2026-05-08 15:39 40.58313 -73.83018 3262 ft 242 kts 85°
2026-05-08 15:40 40.58507 -73.80782 3482 ft 251 kts 85°
2026-05-08 15:40 40.58716 -73.78456 3659 ft 260 kts 81°
2026-05-08 15:40 40.59060 -73.76081 3870 ft 268 kts 77°
2026-05-08 15:40 40.59472 -73.73640 4104 ft 277 kts 76°
2026-05-08 15:41 40.59887 -73.71149 4476 ft 281 kts 76°
2026-05-08 15:41 40.60353 -73.68671 4965 ft 276 kts 69°
2026-05-08 15:41 40.61272 -73.66473 5249 ft 277 kts 48°
2026-05-08 15:41 40.62688 -73.64791 5625 ft 271 kts 37°
2026-05-08 15:42 40.64169 -73.63240 5986 ft 273 kts 36°
2026-05-08 15:42 40.65677 -73.61694 6297 ft 276 kts 34°
2026-05-08 15:42 40.67184 -73.60103 6600 ft 280 kts 36°
2026-05-08 15:42 40.68709 -73.58477 6906 ft 282 kts 34°
2026-05-08 15:43 40.70261 -73.56902 7295 ft 281 kts 33°
2026-05-08 15:43 40.71298 -73.55867 7519 ft 282 kts 33°
2026-05-08 15:43 40.73378 -73.53795 8009 ft 282 kts 33°
2026-05-08 15:43 40.74941 -73.52245 8419 ft 281 kts 32°
2026-05-08 15:44 40.76520 -73.50697 8664 ft 285 kts 32°
2026-05-08 15:44 40.78123 -73.49130 8943 ft 287 kts 32°
2026-05-08 15:44 40.79723 -73.47553 9297 ft 287 kts 32°
2026-05-08 15:44 40.80804 -73.46486 9529 ft 287 kts 32°
2026-05-08 15:45 40.82389 -73.44917 9781 ft 290 kts 32°
2026-05-08 15:45 40.84012 -73.43296 9989 ft 295 kts 32°
2026-05-08 15:45 40.85713 -73.41788 10258 ft 292 kts 21°
2026-05-08 15:45 40.87615 -73.40951 10491 ft 286 kts
2026-05-08 15:46 40.89603 -73.40710 10646 ft 290 kts 359°
2026-05-08 15:46 40.91645 -73.40456 10768 ft 301 kts
2026-05-08 15:46 40.93759 -73.40079 10898 ft 313 kts
2026-05-08 15:46 40.95960 -73.39639 10992 ft 326 kts
2026-05-08 15:47 40.98259 -73.39252 11101 ft 340 kts
2026-05-08 15:47 41.00664 -73.38879 11220 ft 356 kts
2026-05-08 15:47 41.03186 -73.38489 11341 ft 373 kts
2026-05-08 15:47 41.05817 -73.38078 11460 ft 389 kts
2026-05-08 15:48 41.11354 -73.37210 12146 ft 408 kts
2026-05-08 15:48 41.14197 -73.36762 12625 ft 414 kts
2026-05-08 15:48 41.17080 -73.36310 13132 ft 420 kts
2026-05-08 15:49 41.19993 -73.35852 13679 ft 423 kts
2026-05-08 15:49 41.22935 -73.35388 14184 ft 428 kts
2026-05-08 15:49 41.25901 -73.34918 14754 ft 431 kts
2026-05-08 15:49 41.28895 -73.34443 15300 ft 434 kts
2026-05-08 15:50 41.31903 -73.33965 15845 ft 437 kts
2026-05-08 15:50 41.34941 -73.33482 16335 ft 442 kts
2026-05-08 15:50 41.38001 -73.32994 16863 ft 444 kts 360°
2026-05-08 15:50 41.41080 -73.32504 17346 ft 448 kts 359°
2026-05-08 15:51 41.44189 -73.31964 17807 ft 456 kts
2026-05-08 15:51 41.47240 -73.30555 18310 ft 474 kts 20°
2026-05-08 15:51 41.50045 -73.28148 18867 ft 485 kts 29°
2026-05-08 15:51 41.52695 -73.25286 19242 ft 495 kts 34°
2026-05-08 15:52 41.55204 -73.22082 19619 ft 504 kts 39°
2026-05-08 15:52 41.57646 -73.18674 19951 ft 510 kts 40°
2026-05-08 15:52 41.60277 -73.15672 20347 ft 500 kts 26°
2026-05-08 15:52 41.63359 -73.13645 20557 ft 489 kts 11°
2026-05-08 15:53 41.66648 -73.12682 20897 ft 480 kts
2026-05-08 15:53 41.69950 -73.12308 21423 ft 472 kts 353°
2026-05-08 15:53 41.73217 -73.12392 21887 ft 467 kts 348°
2026-05-08 15:53 41.76446 -73.12781 22362 ft 464 kts 345°
2026-05-08 15:54 41.79644 -73.13342 22804 ft 464 kts 343°
2026-05-08 15:54 41.82843 -73.13967 23196 ft 466 kts 343°
2026-05-08 15:54 41.86062 -73.14575 23549 ft 469 kts 343°
2026-05-08 15:54 41.89305 -73.15165 23917 ft 471 kts 343°
2026-05-08 15:55 41.92559 -73.15744 24261 ft 473 kts 343°
2026-05-08 15:55 41.99093 -73.16883 25165 ft 472 kts 343°
2026-05-08 15:55 42.02348 -73.17443 25567 ft 473 kts 343°
2026-05-08 15:56 42.05620 -73.18006 25864 ft 474 kts 344°
2026-05-08 15:56 42.08892 -73.18569 26332 ft 472 kts 344°
2026-05-08 15:56 42.12147 -73.19130 26768 ft 471 kts 344°
2026-05-08 15:56 42.15398 -73.19691 27171 ft 470 kts 344°
2026-05-08 15:57 42.18642 -73.20251 27533 ft 470 kts 344°
2026-05-08 15:57 42.21883 -73.20812 27919 ft 469 kts 344°
2026-05-08 15:57 42.25115 -73.21372 28299 ft 467 kts 344°
2026-05-08 15:57 42.28334 -73.21930 28634 ft 467 kts 344°
2026-05-08 15:58 42.31514 -73.22482 28964 ft 466 kts 344°
2026-05-08 15:58 42.34728 -73.23040 29288 ft 465 kts 344°
2026-05-08 15:58 42.37936 -73.23598 29622 ft 464 kts 343°
2026-05-08 15:58 42.41139 -73.24156 29911 ft 464 kts 343°
2026-05-08 15:59 42.44338 -73.24713 30202 ft 463 kts 343°
2026-05-08 15:59 42.47542 -73.25272 30452 ft 464 kts 343°
2026-05-08 15:59 42.50746 -73.25831 30684 ft 464 kts 343°
2026-05-08 15:59 42.53953 -73.26392 30878 ft 464 kts 343°
2026-05-08 16:00 42.60364 -73.27514 30917 ft 465 kts 344°
2026-05-08 16:00 42.66740 -73.28633 30920 ft 465 kts 344°
2026-05-08 16:01 42.73162 -73.29755 30922 ft 466 kts 344°
2026-05-08 16:01 42.79610 -73.30891 30921 ft 468 kts 344°
2026-05-08 16:02 42.86063 -73.32033 30921 ft 468 kts 344°
2026-05-08 16:02 42.92528 -73.33180 30920 ft 468 kts 345°
2026-05-08 16:03 42.99027 -73.34133 30922 ft 475 kts 351°
2026-05-08 16:03 43.05692 -73.33565 30920 ft 485 kts 358°
2026-05-08 16:04 43.12427 -73.32352 30918 ft 489 kts 360°
2026-05-08 16:04 43.19178 -73.31147 30914 ft 489 kts 360°
2026-05-08 16:05 43.25924 -73.29989 30911 ft 489 kts 360°
2026-05-08 16:05 43.32684 -73.28843 30909 ft 490 kts 360°
2026-05-08 16:06 43.39460 -73.27711 30903 ft 490 kts 360°
2026-05-08 16:06 43.46234 -73.26575 30900 ft 490 kts 360°
2026-05-08 16:07 43.53014 -73.25433 30898 ft 490 kts
2026-05-08 16:07 43.59791 -73.24289 30897 ft 492 kts
2026-05-08 16:08 43.66541 -73.23146 30898 ft 492 kts
2026-05-08 16:08 43.73337 -73.21993 30900 ft 492 kts
2026-05-08 16:09 43.79027 -73.21026 30899 ft 492 kts
2026-05-08 16:09 43.86931 -73.19678 30899 ft 492 kts
2026-05-08 16:10 43.93725 -73.18517 30900 ft 492 kts
2026-05-08 16:10 44.00525 -73.17352 30900 ft 492 kts
2026-05-08 16:11 44.07334 -73.16186 30901 ft 493 kts
2026-05-08 16:11 44.14159 -73.15010 30899 ft 494 kts
2026-05-08 16:12 44.20974 -73.13834 30902 ft 493 kts
2026-05-08 16:12 44.27789 -73.12656 30900 ft 493 kts
2026-05-08 16:13 44.34597 -73.11476 30898 ft 493 kts
2026-05-08 16:13 44.41408 -73.10293 30900 ft 493 kts
2026-05-08 16:14 44.48211 -73.09109 30900 ft 493 kts
2026-05-08 16:14 44.54975 -73.07929 30899 ft 493 kts
2026-05-08 16:15 44.61777 -73.06739 30897 ft 492 kts
2026-05-08 16:15 44.68584 -73.05547 30894 ft 492 kts
2026-05-08 16:16 44.75382 -73.04359 30893 ft 492 kts
2026-05-08 16:16 44.82180 -73.03160 30891 ft 492 kts
2026-05-08 16:17 44.87828 -73.02160 30890 ft 492 kts
2026-05-08 16:17 44.95758 -73.00753 30889 ft 491 kts
2026-05-08 16:18 45.02533 -73.00446 30892 ft 486 kts 352°
2026-05-08 16:18 45.09187 -73.01478 30888 ft 483 kts 348°
2026-05-08 16:19 45.15828 -73.02806 30885 ft 482 kts 348°
2026-05-08 16:19 45.22472 -73.04079 30883 ft 482 kts 348°
2026-05-08 16:20 45.29131 -73.05327 30879 ft 482 kts 349°
2026-05-08 16:20 45.35790 -73.06561 30876 ft 482 kts 349°
2026-05-08 16:21 45.42444 -73.07782 30873 ft 482 kts 349°
2026-05-08 16:21 45.49112 -73.09012 30872 ft 482 kts 349°
2026-05-08 16:22 45.55767 -73.10244 30868 ft 482 kts 349°
2026-05-08 16:22 45.62417 -73.11478 30868 ft 482 kts 349°
2026-05-08 16:23 45.69067 -73.12716 30868 ft 482 kts 349°
2026-05-08 16:23 45.75719 -73.13958 30867 ft 482 kts 349°
2026-05-08 16:24 45.82366 -73.15201 30864 ft 482 kts 349°
2026-05-08 16:24 45.89024 -73.16450 30860 ft 482 kts 349°
2026-05-08 16:25 45.95626 -73.17691 30857 ft 482 kts 349°
2026-05-08 16:25 46.02269 -73.18943 30852 ft 481 kts 349°
2026-05-08 16:26 46.08935 -73.20203 30849 ft 483 kts 350°
2026-05-08 16:26 46.15602 -73.21465 30845 ft 483 kts 350°
2026-05-08 16:27 46.22268 -73.22730 30843 ft 483 kts 350°
2026-05-08 16:27 46.28883 -73.23989 30841 ft 483 kts 350°
2026-05-08 16:28 46.35542 -73.25259 30840 ft 483 kts 350°
2026-05-08 16:28 46.42200 -73.26532 30833 ft 483 kts 350°
2026-05-08 16:29 46.48869 -73.27811 30832 ft 483 kts 350°
2026-05-08 16:29 46.55541 -73.29093 30831 ft 483 kts 350°
2026-05-08 16:30 46.62211 -73.30378 30830 ft 483 kts 350°
2026-05-08 16:30 46.68882 -73.31666 30830 ft 483 kts 350°
2026-05-08 16:31 46.75552 -73.32958 30829 ft 484 kts 350°
2026-05-08 16:31 46.82232 -73.34254 30827 ft 484 kts 350°
2026-05-08 16:32 46.88917 -73.35555 30826 ft 484 kts 349°
2026-05-08 16:32 46.94466 -73.36637 30828 ft 484 kts 349°
2026-05-08 16:33 47.01147 -73.37943 30825 ft 484 kts 349°
2026-05-08 16:33 47.07833 -73.39254 30823 ft 485 kts 349°
2026-05-08 16:34 47.14526 -73.40569 30821 ft 485 kts 349°
2026-05-08 16:34 47.21219 -73.41887 30819 ft 485 kts 349°
2026-05-08 16:35 47.27917 -73.43210 30817 ft 486 kts 349°
2026-05-08 16:35 47.34625 -73.44538 30814 ft 486 kts 349°
2026-05-08 16:36 47.41332 -73.45869 30812 ft 487 kts 349°
2026-05-08 16:36 47.48000 -73.47196 30809 ft 487 kts 349°
2026-05-08 16:37 47.54720 -73.48537 30807 ft 487 kts 349°
2026-05-08 16:37 47.61438 -73.49881 30805 ft 487 kts 349°
2026-05-08 16:38 47.68158 -73.51228 30802 ft 487 kts 349°
2026-05-08 16:38 47.74880 -73.52580 30799 ft 488 kts 349°
2026-05-08 16:39 47.81609 -73.53936 30796 ft 488 kts 349°
2026-05-08 16:39 47.88344 -73.55298 30793 ft 488 kts 349°
2026-05-08 16:40 47.95079 -73.56662 30791 ft 488 kts 349°
2026-05-08 16:40 48.01817 -73.58032 30789 ft 489 kts 349°
2026-05-08 16:41 48.08558 -73.59405 30788 ft 489 kts 349°
2026-05-08 16:42 48.18678 -73.61474 30785 ft 489 kts 349°
2026-05-08 16:42 48.25375 -73.62847 30783 ft 489 kts 349°
2026-05-08 16:43 48.32112 -73.64232 30781 ft 488 kts 349°
2026-05-08 16:43 48.38848 -73.65621 30780 ft 488 kts 349°
2026-05-08 16:44 48.45584 -73.67014 30779 ft 489 kts 349°
2026-05-08 16:44 48.52320 -73.68410 30777 ft 489 kts 349°
2026-05-08 16:45 48.59063 -73.69811 30768 ft 489 kts 349°
2026-05-08 16:45 48.65795 -73.71214 30766 ft 488 kts 349°
2026-05-08 16:46 48.72529 -73.72621 30764 ft 488 kts 349°
2026-05-08 16:46 48.79263 -73.74032 30762 ft 488 kts 349°
2026-05-08 16:47 48.85992 -73.75446 30759 ft 488 kts 349°
2026-05-08 16:47 48.92723 -73.76864 30757 ft 488 kts 349°
2026-05-08 16:48 48.99452 -73.78286 30754 ft 488 kts 349°
2026-05-08 16:48 49.06183 -73.79711 30751 ft 488 kts 349°
2026-05-08 16:49 49.12925 -73.81143 30749 ft 488 kts 349°
2026-05-08 16:49 49.19612 -73.82567 30746 ft 488 kts 349°
2026-05-08 16:50 49.26346 -73.84006 30744 ft 488 kts 349°
2026-05-08 16:50 49.33075 -73.85447 30741 ft 488 kts 349°
2026-05-08 16:51 49.39809 -73.86893 30739 ft 488 kts 349°
2026-05-08 16:51 49.46544 -73.88343 30738 ft 489 kts 349°
2026-05-08 16:52 49.53247 -73.89791 30736 ft 489 kts 349°
2026-05-08 16:52 49.59987 -73.91250 30735 ft 489 kts 348°
2026-05-08 16:53 49.70099 -73.93440 30733 ft 489 kts 349°
2026-05-08 16:53 49.76839 -73.94905 30733 ft 489 kts 348°
2026-05-08 16:54 49.83587 -73.96385 30732 ft 489 kts 348°
2026-05-08 16:54 49.90330 -73.97868 30731 ft 489 kts 348°
2026-05-08 16:55 49.97068 -73.99352 30731 ft 489 kts 348°
2026-05-08 16:55 50.03817 -74.00783 30731 ft 490 kts 349°
2026-05-08 16:56 50.10584 -74.02083 30732 ft 490 kts 349°
2026-05-08 16:56 50.17346 -74.03400 30731 ft 490 kts 349°
2026-05-08 16:57 50.24069 -74.04721 30731 ft 490 kts 349°
2026-05-08 16:57 50.30830 -74.06055 30732 ft 490 kts 349°
2026-05-08 16:58 50.37595 -74.07383 30731 ft 490 kts 349°
2026-05-08 16:58 50.44356 -74.08710 30731 ft 490 kts 349°
2026-05-08 16:59 50.51122 -74.10048 30731 ft 490 kts 349°
2026-05-08 16:59 50.57891 -74.11393 30731 ft 490 kts 349°
2026-05-08 17:00 50.64664 -74.12743 30726 ft 490 kts 349°
2026-05-08 17:00 50.71436 -74.14098 30725 ft 490 kts 349°
2026-05-08 17:01 50.78199 -74.15455 30724 ft 490 kts 349°
2026-05-08 17:01 50.84962 -74.16816 30722 ft 490 kts 349°
2026-05-08 17:02 50.91734 -74.18183 30721 ft 490 kts 350°
2026-05-08 17:02 50.98457 -74.19544 30720 ft 490 kts 350°
2026-05-08 17:03 51.05230 -74.20919 30718 ft 491 kts 350°
2026-05-08 17:03 51.12005 -74.22299 30716 ft 491 kts 350°
2026-05-08 17:04 51.18778 -74.23683 30714 ft 491 kts 350°
2026-05-08 17:04 51.25551 -74.25070 30712 ft 491 kts 350°
2026-05-08 17:05 51.32331 -74.26463 30710 ft 491 kts 350°
2026-05-08 17:05 51.39113 -74.27861 30708 ft 491 kts 350°
2026-05-08 17:06 51.45855 -74.29254 30705 ft 491 kts 350°
2026-05-08 17:06 51.52634 -74.30659 30703 ft 491 kts 350°
2026-05-08 17:07 51.59415 -74.32069 30701 ft 491 kts 350°
2026-05-08 17:07 51.66203 -74.33485 30698 ft 491 kts 350°
2026-05-08 17:08 51.72975 -74.34902 30696 ft 491 kts 350°
2026-05-08 17:08 51.79751 -74.36324 30683 ft 491 kts 350°
2026-05-08 17:09 51.86523 -74.37749 30680 ft 491 kts 350°
2026-05-08 17:09 51.93295 -74.39178 30677 ft 491 kts 350°
2026-05-08 17:10 52.00073 -74.40613 30676 ft 491 kts 350°
2026-05-08 17:10 52.06848 -74.42052 30673 ft 491 kts 350°
2026-05-08 17:11 52.13630 -74.43497 30671 ft 492 kts 350°
2026-05-08 17:11 52.20411 -74.44946 30669 ft 491 kts 350°
2026-05-08 17:12 52.27193 -74.46400 30668 ft 492 kts 350°
2026-05-08 17:12 52.33975 -74.47858 30666 ft 492 kts 350°
2026-05-08 17:13 52.40764 -74.49322 30664 ft 492 kts 350°
2026-05-08 17:13 52.47548 -74.50790 30663 ft 492 kts 350°
2026-05-08 17:14 52.54340 -74.52264 30662 ft 492 kts 350°
2026-05-08 17:14 52.61132 -74.53743 30661 ft 492 kts 350°
2026-05-08 17:15 52.67892 -74.55219 30661 ft 493 kts 350°
2026-05-08 17:15 52.74693 -74.56709 30659 ft 493 kts 350°
2026-05-08 17:16 52.81492 -74.58203 30659 ft 493 kts 351°
2026-05-08 17:16 52.88297 -74.59704 30659 ft 493 kts 351°
2026-05-08 17:17 52.95101 -74.61208 30659 ft 494 kts 351°
2026-05-08 17:17 53.01914 -74.62720 30657 ft 493 kts 351°
2026-05-08 17:18 53.08720 -74.64235 30657 ft 494 kts 351°
2026-05-08 17:18 53.15536 -74.65757 30657 ft 494 kts 351°
2026-05-08 17:19 53.22360 -74.67285 30657 ft 495 kts 351°
2026-05-08 17:19 53.29184 -74.68819 30657 ft 495 kts 351°
2026-05-08 17:20 53.36005 -74.70356 30657 ft 495 kts 351°
2026-05-08 17:20 53.41680 -74.71640 30656 ft 495 kts 351°
2026-05-08 17:21 53.49618 -74.73440 30657 ft 495 kts 351°
2026-05-08 17:21 53.56445 -74.74994 30656 ft 495 kts 351°
2026-05-08 17:22 53.62169 -74.76301 30657 ft 495 kts 351°
2026-05-08 17:22 53.68955 -74.77855 30655 ft 495 kts 351°
2026-05-08 17:23 53.75785 -74.79425 30654 ft 495 kts 351°
2026-05-08 17:23 53.82618 -74.81000 30652 ft 496 kts 351°
2026-05-08 17:24 53.89452 -74.82580 30652 ft 495 kts 351°
2026-05-08 17:24 53.96281 -74.84165 30651 ft 495 kts 351°
2026-05-08 17:25 54.03108 -74.85755 30649 ft 495 kts 351°
2026-05-08 17:25 54.09947 -74.87352 30650 ft 496 kts 351°
2026-05-08 17:26 54.16795 -74.88957 30649 ft 497 kts 351°
2026-05-08 17:26 54.23642 -74.90567 30648 ft 496 kts 351°
2026-05-08 17:27 54.30485 -74.92181 30648 ft 496 kts 351°
2026-05-08 17:27 54.37332 -74.93787 30647 ft 497 kts 351°
2026-05-08 17:28 54.44178 -74.95415 30646 ft 497 kts 351°
2026-05-08 17:28 54.51025 -74.97053 30645 ft 497 kts 351°
2026-05-08 17:29 54.57843 -74.98689 30652 ft 497 kts 351°
2026-05-08 17:29 54.61270 -74.99517 30885 ft 498 kts 350°
2026-05-08 17:29 54.64666 -75.00729 31111 ft 498 kts 345°
2026-05-08 17:30 54.68009 -75.02325 31367 ft 497 kts 342°
2026-05-08 17:30 54.71311 -75.04118 31609 ft 497 kts 341°
2026-05-08 17:30 54.77855 -75.07837 31662 ft 497 kts 341°
2026-05-08 17:31 54.84445 -75.11521 31654 ft 497 kts 341°
2026-05-08 17:31 54.91041 -75.15185 31642 ft 498 kts 341°
2026-05-08 17:32 54.97638 -75.18831 31643 ft 498 kts 342°
2026-05-08 17:32 55.04251 -75.22442 31642 ft 498 kts 342°
2026-05-08 17:33 55.10861 -75.26088 31642 ft 498 kts 342°
2026-05-08 17:33 55.17471 -75.29758 31641 ft 498 kts 342°
2026-05-08 17:34 55.24071 -75.33439 31642 ft 497 kts 342°
2026-05-08 17:34 55.30670 -75.37134 31643 ft 497 kts 342°
2026-05-08 17:35 55.37264 -75.40839 31644 ft 498 kts 342°
2026-05-08 17:35 55.43826 -75.44540 31644 ft 498 kts 342°
2026-05-08 17:36 55.50426 -75.48275 31644 ft 498 kts 342°
2026-05-08 17:36 55.57024 -75.52022 31644 ft 498 kts 342°
2026-05-08 17:37 55.63620 -75.55782 31644 ft 498 kts 342°
2026-05-08 17:37 55.70212 -75.59553 31645 ft 498 kts 342°
2026-05-08 17:38 55.76807 -75.63338 31645 ft 498 kts 342°
2026-05-08 17:38 55.83400 -75.67136 31645 ft 498 kts 342°
2026-05-08 17:39 55.89993 -75.70948 31645 ft 498 kts 342°
2026-05-08 17:39 55.96584 -75.74771 31646 ft 498 kts 342°
2026-05-08 17:40 56.03180 -75.78612 31646 ft 498 kts 342°
2026-05-08 17:40 56.09724 -75.82437 31647 ft 498 kts 342°
2026-05-08 17:41 56.16317 -75.86303 31647 ft 498 kts 342°
2026-05-08 17:41 56.22905 -75.90181 31648 ft 498 kts 342°
2026-05-08 17:42 56.29489 -75.94070 31648 ft 498 kts 342°
2026-05-08 17:42 56.36077 -75.97976 31649 ft 498 kts 342°
2026-05-08 17:43 56.42659 -76.01893 31649 ft 498 kts 342°
2026-05-08 17:43 56.49238 -76.05822 31650 ft 498 kts 342°
2026-05-08 17:44 56.55780 -76.09743 31650 ft 498 kts 342°
2026-05-08 17:44 56.62367 -76.13706 31650 ft 499 kts 342°
2026-05-08 17:45 56.68957 -76.17686 31650 ft 499 kts 342°
2026-05-08 17:45 56.75548 -76.21680 31649 ft 499 kts 342°
2026-05-08 17:46 56.82130 -76.25684 31649 ft 499 kts 342°
2026-05-08 17:46 56.88712 -76.29702 31648 ft 499 kts 342°
2026-05-08 17:47 56.95302 -76.33741 31648 ft 500 kts 342°
2026-05-08 17:47 57.00777 -76.37108 31647 ft 499 kts 342°
2026-05-08 17:48 57.08488 -76.41868 31646 ft 499 kts 342°
2026-05-08 17:48 57.15073 -76.45949 31645 ft 499 kts 342°
2026-05-08 17:49 57.21620 -76.50022 31643 ft 500 kts 342°
2026-05-08 17:49 57.28213 -76.54139 31641 ft 500 kts 342°
2026-05-08 17:50 57.34802 -76.58269 31638 ft 500 kts 342°
2026-05-08 17:50 57.41391 -76.62414 31637 ft 500 kts 342°
2026-05-08 17:51 57.47974 -76.66573 31634 ft 500 kts 342°
2026-05-08 17:51 57.54565 -76.70751 31633 ft 500 kts 342°
2026-05-08 17:52 57.61144 -76.74939 31630 ft 500 kts 342°
2026-05-08 17:53 57.70974 -76.81207 31627 ft 500 kts 342°
2026-05-08 17:53 57.77554 -76.85404 31625 ft 500 kts 341°
2026-05-08 17:54 57.84124 -76.89656 31621 ft 499 kts 341°
2026-05-08 17:54 57.90690 -76.93927 31619 ft 499 kts 341°
2026-05-08 17:55 57.97264 -76.98212 31618 ft 500 kts 341°
2026-05-08 17:55 58.03640 -77.03412 31619 ft 501 kts 334°
2026-05-08 17:56 58.09792 -77.09682 31616 ft 503 kts 332°
2026-05-08 17:56 58.15924 -77.16078 31614 ft 503 kts 332°
2026-05-08 17:57 58.22058 -77.22425 31613 ft 502 kts 332°
2026-05-08 17:57 58.28201 -77.28776 31612 ft 502 kts 332°
2026-05-08 17:58 58.34365 -77.35056 31612 ft 502 kts 333°
2026-05-08 17:58 58.40515 -77.41326 31612 ft 502 kts 332°
2026-05-08 17:59 58.46682 -77.47672 31606 ft 503 kts 332°
2026-05-08 17:59 58.52825 -77.54040 31613 ft 502 kts 332°
2026-05-08 18:00 58.58931 -77.60406 31608 ft 502 kts 332°
2026-05-08 18:00 58.68135 -77.70052 31611 ft 502 kts 332°
2026-05-08 18:01 58.74266 -77.76508 31611 ft 502 kts 332°
2026-05-08 18:01 58.80391 -77.82985 31611 ft 502 kts 332°
2026-05-08 18:02 58.85478 -77.88385 31611 ft 502 kts 332°
2026-05-08 18:02 58.92636 -77.96013 31611 ft 503 kts 332°
2026-05-08 18:03 58.98763 -78.02572 31611 ft 503 kts 332°
2026-05-08 18:03 59.04883 -78.09152 31611 ft 503 kts 332°
2026-05-08 18:04 59.10999 -78.15753 31610 ft 503 kts 332°
2026-05-08 18:04 59.17079 -78.22342 31611 ft 503 kts 332°
2026-05-08 18:05 59.23194 -78.28998 31611 ft 503 kts 332°
2026-05-08 18:05 59.29309 -78.35679 31611 ft 503 kts 332°
2026-05-08 18:06 59.35413 -78.42377 31611 ft 503 kts 332°
2026-05-08 18:06 59.41520 -78.49107 31611 ft 503 kts 332°
2026-05-08 18:07 59.47621 -78.55858 31611 ft 503 kts 332°
2026-05-08 18:07 59.53721 -78.62637 31612 ft 504 kts 332°
2026-05-08 18:08 59.59824 -78.69446 31609 ft 504 kts 331°
2026-05-08 18:08 59.65958 -78.76320 31614 ft 509 kts 331°
2026-05-08 18:09 59.72118 -78.83252 31616 ft 509 kts 331°
2026-05-08 18:09 59.77225 -78.89023 31613 ft 508 kts 331°
2026-05-08 18:10 59.83359 -78.95981 31615 ft 507 kts 331°
2026-05-08 18:10 59.90472 -79.04081 31607 ft 507 kts 331°
2026-05-08 18:11 59.95594 -79.09946 31613 ft 507 kts 331°
2026-05-08 18:11 60.01701 -79.16960 31608 ft 506 kts 331°
2026-05-08 18:12 60.07813 -79.24013 31614 ft 508 kts 331°
2026-05-08 18:12 60.13941 -79.31114 31610 ft 508 kts 331°
2026-05-08 18:13 60.20043 -79.38218 31611 ft 506 kts 331°
2026-05-08 18:13 60.26129 -79.45331 31609 ft 506 kts 331°
2026-05-08 18:14 60.32208 -79.52471 31612 ft 506 kts 331°
2026-05-08 18:14 60.38249 -79.59592 31611 ft 506 kts 331°
2026-05-08 18:15 60.44329 -79.66790 31612 ft 506 kts 330°
2026-05-08 18:15 60.50410 -79.74020 31612 ft 506 kts 330°
2026-05-08 18:16 60.56481 -79.81274 31614 ft 506 kts 330°
2026-05-08 18:16 60.62543 -79.88552 31612 ft 506 kts 330°
2026-05-08 18:17 60.68603 -79.95857 31610 ft 506 kts 330°
2026-05-08 18:17 60.74657 -80.03187 31618 ft 506 kts 330°
2026-05-08 18:18 60.80707 -80.10543 31612 ft 506 kts 330°
2026-05-08 18:18 60.86751 -80.17926 31611 ft 506 kts 330°
2026-05-08 18:19 60.92803 -80.25350 31613 ft 507 kts 330°
2026-05-08 18:19 60.98815 -80.32759 31613 ft 507 kts 330°
2026-05-08 18:20 61.04865 -80.40249 31614 ft 507 kts 330°
2026-05-08 18:20 61.10919 -80.47778 31614 ft 508 kts 330°
2026-05-08 18:21 61.16967 -80.55332 31614 ft 508 kts 330°
2026-05-08 18:21 61.23025 -80.62933 31615 ft 508 kts 330°
2026-05-08 18:22 61.29071 -80.70555 31616 ft 508 kts 330°
2026-05-08 18:22 61.35111 -80.78204 31623 ft 508 kts 330°
2026-05-08 18:23 61.41114 -80.85840 31624 ft 508 kts 330°
2026-05-08 18:23 61.47147 -80.93550 31626 ft 508 kts 330°
2026-05-08 18:24 61.53179 -81.01294 31627 ft 508 kts 330°
2026-05-08 18:24 61.59208 -81.09071 31628 ft 509 kts 329°
2026-05-08 18:25 61.65233 -81.16878 31630 ft 509 kts 329°
2026-05-08 18:25 61.71267 -81.24732 31631 ft 509 kts 329°
2026-05-08 18:26 61.77295 -81.32616 31633 ft 510 kts 329°
2026-05-08 18:26 61.83325 -81.40539 31634 ft 510 kts 329°
2026-05-08 18:27 61.88332 -81.47146 31635 ft 510 kts 329°
2026-05-08 18:27 61.95323 -81.56415 31637 ft 510 kts 329°
2026-05-08 18:28 62.01339 -81.64433 31639 ft 511 kts 329°
2026-05-08 18:28 62.07360 -81.72494 31641 ft 511 kts 329°
2026-05-08 18:29 62.13377 -81.80589 31642 ft 511 kts 329°
2026-05-08 18:29 62.19385 -81.88709 31643 ft 511 kts 329°
2026-05-08 18:30 62.25388 -81.96863 31645 ft 511 kts 329°
2026-05-08 18:30 62.31387 -82.05049 31647 ft 511 kts 329°
2026-05-08 18:31 62.37392 -82.13284 31648 ft 511 kts 329°
2026-05-08 18:31 62.43382 -82.21537 31649 ft 511 kts 328°
2026-05-08 18:32 62.49368 -82.29825 31651 ft 510 kts 328°
2026-05-08 18:32 62.55344 -82.38139 31652 ft 511 kts 328°
2026-05-08 18:33 62.61325 -82.46501 31654 ft 511 kts 328°
2026-05-08 18:33 62.67300 -82.54894 31655 ft 511 kts 328°
2026-05-08 18:34 62.73272 -82.63325 31666 ft 511 kts 328°
2026-05-08 18:34 62.79201 -82.71735 31667 ft 511 kts 328°
2026-05-08 18:35 62.85162 -82.80232 31668 ft 511 kts 328°
2026-05-08 18:35 62.91112 -82.88757 31669 ft 511 kts 328°
2026-05-08 18:36 62.97071 -82.97334 31670 ft 512 kts 327°
2026-05-08 18:36 63.03025 -83.05949 31670 ft 512 kts 327°
2026-05-08 18:37 63.08977 -83.14603 31671 ft 512 kts 327°
2026-05-08 18:37 63.14916 -83.23282 31671 ft 511 kts 327°
2026-05-08 18:38 63.20847 -83.31992 31671 ft 512 kts 327°
2026-05-08 18:38 63.26789 -83.40762 31673 ft 513 kts 327°
2026-05-08 18:39 63.32732 -83.49578 31674 ft 513 kts 327°
2026-05-08 18:39 63.38664 -83.58421 31674 ft 513 kts 327°
2026-05-08 18:40 63.44590 -83.67301 31674 ft 513 kts 327°
2026-05-08 18:40 63.50514 -83.76222 31674 ft 513 kts 327°
2026-05-08 18:41 63.56432 -83.85180 31674 ft 513 kts 327°
2026-05-08 18:41 63.62342 -83.94172 31673 ft 513 kts 326°
2026-05-08 18:42 63.68210 -84.03147 31674 ft 513 kts 326°
2026-05-08 18:42 63.74120 -84.12230 31674 ft 513 kts 326°
2026-05-08 18:43 63.80020 -84.21346 31673 ft 513 kts 326°
2026-05-08 18:43 63.85912 -84.30497 31673 ft 513 kts 326°
2026-05-08 18:44 63.91798 -84.39685 31674 ft 513 kts 326°
2026-05-08 18:44 63.97675 -84.48907 31674 ft 513 kts 326°
2026-05-08 18:45 64.03541 -84.58160 31675 ft 512 kts 326°
2026-05-08 18:45 64.09397 -84.67445 31675 ft 512 kts 326°
2026-05-08 18:46 64.15241 -84.76759 31676 ft 512 kts 326°
2026-05-08 18:46 64.21077 -84.86111 31677 ft 511 kts 326°
2026-05-08 18:47 64.26904 -84.95496 31684 ft 511 kts 326°
2026-05-08 18:47 64.32720 -85.04914 31687 ft 511 kts 326°
2026-05-08 18:48 64.38488 -85.14302 31690 ft 510 kts 326°
2026-05-08 18:48 64.44285 -85.23788 31693 ft 510 kts 326°
2026-05-08 18:49 64.50074 -85.33310 31696 ft 509 kts 326°
2026-05-08 18:49 64.55842 -85.42847 31700 ft 509 kts 326°
2026-05-08 18:50 64.61601 -85.52422 31704 ft 509 kts 326°
2026-05-08 18:50 64.67360 -85.62048 31709 ft 509 kts 326°
2026-05-08 18:51 64.73111 -85.71710 31713 ft 509 kts 326°
2026-05-08 18:51 64.78862 -85.81426 31718 ft 509 kts 326°
2026-05-08 18:52 64.84557 -85.91097 31724 ft 509 kts 326°
2026-05-08 18:52 64.90286 -86.00879 31727 ft 508 kts 326°
2026-05-08 18:53 64.95998 -86.10687 31732 ft 507 kts 326°
2026-05-08 18:53 65.01683 -86.20498 31737 ft 505 kts 326°
2026-05-08 18:54 65.07359 -86.30347 31747 ft 506 kts 326°
2026-05-08 18:54 65.13030 -86.40241 31753 ft 506 kts 326°
2026-05-08 18:55 65.21513 -86.55142 31761 ft 505 kts 326°
2026-05-08 18:56 65.26210 -86.63444 31765 ft 505 kts 326°
2026-05-08 18:56 65.31849 -86.73463 31770 ft 505 kts 326°
2026-05-08 18:57 65.37478 -86.83517 31775 ft 504 kts 326°
2026-05-08 18:57 65.44008 -86.95251 31780 ft 504 kts 326°
2026-05-08 18:58 65.48704 -87.03736 31783 ft 504 kts 326°
2026-05-08 18:58 65.54302 -87.13902 31787 ft 503 kts 326°
2026-05-08 18:59 65.59890 -87.24107 31790 ft 503 kts 326°
2026-05-08 18:59 65.65426 -87.34270 31793 ft 502 kts 326°
2026-05-08 19:00 65.71022 -87.44602 31796 ft 502 kts 326°
2026-05-08 19:00 65.76536 -87.54839 31799 ft 502 kts 326°
2026-05-08 19:01 65.82075 -87.65180 31801 ft 501 kts 326°
2026-05-08 19:01 65.87603 -87.75556 31803 ft 501 kts 327°
2026-05-08 19:02 65.93119 -87.85969 31805 ft 501 kts 327°
2026-05-08 19:02 65.98628 -87.96428 31806 ft 500 kts 326°
2026-05-08 19:03 66.04132 -88.06934 31808 ft 500 kts 326°
2026-05-08 19:03 66.09627 -88.17484 31809 ft 501 kts 326°
2026-05-08 19:04 66.15111 -88.28071 31810 ft 500 kts 326°
2026-05-08 19:04 66.20588 -88.38706 31811 ft 500 kts 326°
2026-05-08 19:05 66.26020 -88.49311 31813 ft 500 kts 326°
2026-05-08 19:05 66.31472 -88.60017 31814 ft 499 kts 326°
2026-05-08 19:06 66.36910 -88.70758 31816 ft 498 kts 326°
2026-05-08 19:06 66.42336 -88.81533 31817 ft 498 kts 327°
2026-05-08 19:07 66.47750 -88.92348 31819 ft 497 kts 327°
2026-05-08 19:07 66.53114 -89.03124 31822 ft 497 kts 327°
2026-05-08 19:08 66.58502 -89.14010 31840 ft 497 kts 327°
2026-05-08 19:08 66.63881 -89.24939 31847 ft 497 kts 327°
2026-05-08 19:09 66.69245 -89.35902 31849 ft 496 kts 327°
2026-05-08 19:09 66.74605 -89.46919 31853 ft 496 kts 327°
2026-05-08 19:10 66.79992 -89.57825 31857 ft 496 kts 327°
2026-05-08 19:10 66.85328 -89.68959 31861 ft 496 kts 326°
2026-05-08 19:11 66.90643 -89.80168 31865 ft 496 kts 326°
2026-05-08 19:11 66.95943 -89.91391 31880 ft 495 kts 326°
2026-05-08 19:12 67.01167 -90.02917 31886 ft 498 kts 322°
2026-05-08 19:12 67.05965 -90.15577 31890 ft 499 kts 319°
2026-05-08 19:13 67.10683 -90.28675 31894 ft 500 kts 319°
2026-05-08 19:13 67.15423 -90.41794 31899 ft 501 kts 319°
2026-05-08 19:14 67.20158 -90.54933 31903 ft 500 kts 319°
2026-05-08 19:14 67.24903 -90.68055 31908 ft 499 kts 320°
2026-05-08 19:15 67.29732 -90.80958 31921 ft 499 kts 320°
2026-05-08 19:15 67.34505 -90.94014 31926 ft 498 kts 320°
2026-05-08 19:16 67.39244 -91.07175 31928 ft 498 kts 320°
2026-05-08 19:16 67.43963 -91.20402 31930 ft 499 kts 319°
2026-05-08 19:17 67.48662 -91.33673 31933 ft 498 kts 319°
2026-05-08 19:17 67.53343 -91.46983 31934 ft 497 kts 319°
2026-05-08 19:18 67.58013 -91.60346 31936 ft 497 kts 319°
2026-05-08 19:18 67.62672 -91.73765 31941 ft 497 kts 319°
2026-05-08 19:19 67.67318 -91.87231 31943 ft 497 kts 319°
2026-05-08 19:19 67.71945 -92.00726 31945 ft 496 kts 319°
2026-05-08 19:20 67.76527 -92.14179 31947 ft 496 kts 319°
2026-05-08 19:20 67.81131 -92.27778 31953 ft 496 kts 319°
2026-05-08 19:21 67.85736 -92.41470 31954 ft 497 kts 318°
2026-05-08 19:21 67.90320 -92.55189 31956 ft 497 kts 318°
2026-05-08 19:22 67.94896 -92.68969 31958 ft 497 kts 318°
2026-05-08 19:22 67.99462 -92.82811 31961 ft 497 kts 318°
2026-05-08 19:23 68.04008 -92.96677 31962 ft 495 kts 317°
2026-05-08 19:23 68.08505 -93.10489 31965 ft 495 kts 317°
2026-05-08 19:24 68.13023 -93.24455 31968 ft 495 kts 317°
2026-05-08 19:24 68.17526 -93.38464 31971 ft 495 kts 317°
2026-05-08 19:25 68.22019 -93.52537 31974 ft 496 kts 317°
2026-05-08 19:25 68.26498 -93.66653 32005 ft 496 kts 317°
2026-05-08 19:26 68.30973 -93.80854 32013 ft 496 kts 317°
2026-05-08 19:26 68.35431 -93.95095 32014 ft 496 kts 317°
2026-05-08 19:27 68.39881 -94.09406 32015 ft 496 kts 316°
2026-05-08 19:27 68.44315 -94.23758 32016 ft 496 kts 316°
2026-05-08 19:28 68.48705 -94.38065 32017 ft 495 kts 316°
2026-05-08 19:28 68.53107 -94.52505 32017 ft 495 kts 315°
2026-05-08 19:29 68.57495 -94.66998 32018 ft 495 kts 315°
2026-05-08 19:29 68.61866 -94.81534 32017 ft 495 kts 315°
2026-05-08 19:30 68.66227 -94.96136 32019 ft 494 kts 314°
2026-05-08 19:30 68.70574 -95.10787 32020 ft 494 kts 314°
2026-05-08 19:31 68.74904 -95.25484 32020 ft 493 kts 314°
2026-05-08 19:31 68.79220 -95.40229 32020 ft 493 kts 314°
2026-05-08 19:32 68.83521 -95.55030 32020 ft 494 kts 314°
2026-05-08 19:32 68.87780 -95.69782 32020 ft 493 kts 313°
2026-05-08 19:33 68.92058 -95.84707 32021 ft 493 kts 313°
2026-05-08 19:33 68.96317 -95.99666 32021 ft 493 kts 313°
2026-05-08 19:34 69.00563 -96.14681 32022 ft 493 kts 312°
2026-05-08 19:34 69.04792 -96.29742 32023 ft 493 kts 312°
2026-05-08 19:35 69.09010 -96.44873 32024 ft 493 kts 312°
2026-05-08 19:35 69.13220 -96.60078 32025 ft 494 kts 311°
2026-05-08 19:36 69.17414 -96.75333 32026 ft 493 kts 311°
2026-05-08 19:36 69.21593 -96.90645 32027 ft 493 kts 311°
2026-05-08 19:37 69.25759 -97.06016 32028 ft 494 kts 311°
2026-05-08 19:37 69.29888 -97.21355 32032 ft 494 kts 310°
2026-05-08 19:38 69.34030 -97.36859 32034 ft 494 kts 310°
2026-05-08 19:38 69.38160 -97.52426 32036 ft 494 kts 310°
2026-05-08 19:39 69.42276 -97.68052 32038 ft 494 kts 309°
2026-05-08 19:39 69.46379 -97.83742 32040 ft 494 kts 309°
2026-05-08 19:40 69.50466 -97.99485 32043 ft 494 kts 308°
2026-05-08 19:40 69.54535 -98.15273 32045 ft 493 kts 308°
2026-05-08 19:41 69.58587 -98.31114 32048 ft 494 kts 308°
2026-05-08 19:41 69.62634 -98.47051 32058 ft 494 kts 308°
2026-05-08 19:42 69.66662 -98.63031 32063 ft 494 kts 308°
2026-05-08 19:42 69.70659 -98.79003 32067 ft 494 kts 308°
2026-05-08 19:43 69.74661 -98.95114 32071 ft 494 kts 307°
2026-05-08 19:43 69.78649 -99.11289 32074 ft 494 kts 307°
2026-05-08 19:44 69.82658 -99.27486 32078 ft 494 kts 308°
2026-05-08 19:44 69.86685 -99.43648 32082 ft 494 kts 306°
2026-05-08 19:45 69.89936 -99.57307 32086 ft 494 kts 306°
2026-05-08 19:45 69.93831 -99.73788 32089 ft 494 kts 305°
2026-05-08 19:46 69.97723 -99.90315 32093 ft 494 kts 305°
2026-05-08 19:46 70.03653 -100.14958 32098 ft 494 kts 307°
2026-05-08 19:47 70.07681 -100.31292 32101 ft 494 kts 306°
2026-05-08 19:47 70.11661 -100.47712 32104 ft 493 kts 306°
2026-05-08 19:48 70.15614 -100.64233 32107 ft 493 kts 305°
2026-05-08 19:48 70.19510 -100.80699 32110 ft 492 kts 304°
2026-05-08 19:49 70.23563 -100.97008 32113 ft 492 kts 306°
2026-05-08 19:49 70.27596 -101.13389 32116 ft 492 kts 305°
2026-05-08 19:50 70.31553 -101.29916 32117 ft 492 kts 304°
2026-05-08 19:50 70.35476 -101.46541 32119 ft 492 kts 304°
2026-05-08 19:51 70.39378 -101.63253 32122 ft 492 kts 304°
2026-05-08 19:51 70.43266 -101.80047 32123 ft 492 kts 303°
2026-05-08 19:52 70.47137 -101.96905 32125 ft 492 kts 303°
2026-05-08 19:52 70.50993 -102.13833 32126 ft 492 kts 303°
2026-05-08 19:53 70.54802 -102.30692 32128 ft 491 kts 302°
2026-05-08 19:53 70.58616 -102.47702 32129 ft 491 kts 302°
2026-05-08 19:54 70.62412 -102.64768 32130 ft 490 kts 302°
2026-05-08 19:54 70.66184 -102.81861 32131 ft 489 kts 301°
2026-05-08 19:55 70.69932 -102.98986 32133 ft 489 kts 301°
2026-05-08 19:55 70.73664 -103.16170 32133 ft 488 kts 300°
2026-05-08 19:56 70.77384 -103.33441 32134 ft 488 kts 300°
2026-05-08 19:56 70.81078 -103.50732 32135 ft 488 kts 300°
2026-05-08 19:57 70.84758 -103.68095 32136 ft 488 kts 300°
2026-05-08 19:57 70.88420 -103.85512 32137 ft 488 kts 299°
2026-05-08 19:58 70.92041 -104.02876 32137 ft 487 kts 299°
2026-05-08 19:58 70.95665 -104.20391 32138 ft 487 kts 298°
2026-05-08 19:59 70.99271 -104.37972 32139 ft 487 kts 298°
2026-05-08 19:59 71.02854 -104.55588 32139 ft 486 kts 297°
2026-05-08 20:00 71.06422 -104.73272 32140 ft 486 kts 297°
2026-05-08 20:00 71.09969 -104.91003 32140 ft 486 kts 297°
2026-05-08 20:01 71.13509 -105.08843 32141 ft 486 kts 296°
2026-05-08 20:01 71.16994 -105.26556 32161 ft 485 kts 296°
2026-05-08 20:02 71.20484 -105.44442 32154 ft 485 kts 296°
2026-05-08 20:02 71.23953 -105.62374 32154 ft 484 kts 295°
2026-05-08 20:03 71.27397 -105.80329 32172 ft 483 kts 295°
2026-05-08 20:03 71.30825 -105.98355 32173 ft 483 kts 295°
2026-05-08 20:04 71.34233 -106.16430 32174 ft 483 kts 294°
2026-05-08 20:04 71.37618 -106.34537 32175 ft 482 kts 294°
2026-05-08 20:05 71.40985 -106.52702 32175 ft 482 kts 294°
2026-05-08 20:05 71.44339 -106.70957 32176 ft 483 kts 294°
2026-05-08 20:06 71.47654 -106.89159 32176 ft 484 kts 293°
2026-05-08 20:06 71.50984 -107.07599 32177 ft 484 kts 293°
2026-05-08 20:07 71.54292 -107.26081 32178 ft 484 kts 293°
2026-05-08 20:07 71.57582 -107.44634 32179 ft 484 kts 292°
2026-05-08 20:08 71.60853 -107.63237 32179 ft 483 kts 292°
2026-05-08 20:08 71.64102 -107.81888 32180 ft 483 kts 292°
2026-05-08 20:09 71.67327 -108.00563 32181 ft 482 kts 292°
2026-05-08 20:09 71.70532 -108.19296 32182 ft 482 kts 291°
2026-05-08 20:10 71.73700 -108.37977 32182 ft 483 kts 291°
2026-05-08 20:10 71.76871 -108.56849 32183 ft 483 kts 291°
2026-05-08 20:11 71.80028 -108.75811 32184 ft 483 kts 291°
2026-05-08 20:11 71.83173 -108.94876 32185 ft 484 kts 291°
2026-05-08 20:12 71.86339 -109.13969 32186 ft 485 kts 292°
2026-05-08 20:12 71.89548 -109.33034 32186 ft 485 kts 291°
2026-05-08 20:13 71.92589 -109.52379 32187 ft 484 kts 290°
2026-05-08 20:13 71.95613 -109.71775 32188 ft 484 kts 290°
2026-05-08 20:14 71.98635 -109.91203 32189 ft 484 kts 290°
2026-05-08 20:14 72.01505 -110.10694 32190 ft 482 kts 287°
2026-05-08 20:15 72.04040 -110.30765 32190 ft 480 kts 285°
2026-05-08 20:15 72.06515 -110.50876 32191 ft 480 kts 285°
2026-05-08 20:16 72.08976 -110.71012 32192 ft 480 kts 285°
2026-05-08 20:16 72.11416 -110.91218 32193 ft 481 kts 285°
2026-05-08 20:17 72.13851 -111.11499 32194 ft 482 kts 287°
2026-05-08 20:17 72.16561 -111.31514 32195 ft 483 kts 287°
2026-05-08 20:18 72.19150 -111.51725 32195 ft 482 kts 286°
2026-05-08 20:18 72.21649 -111.72083 32199 ft 482 kts 285°
2026-05-08 20:19 72.24106 -111.92519 32199 ft 482 kts 285°
2026-05-08 20:19 72.26514 -112.12862 32200 ft 482 kts 285°
2026-05-08 20:20 72.28914 -112.33386 32201 ft 482 kts 285°
2026-05-08 20:20 72.31293 -112.53975 32202 ft 482 kts 285°
2026-05-08 20:21 72.33651 -112.74633 32203 ft 482 kts 285°
2026-05-08 20:21 72.35989 -112.95353 32204 ft 482 kts 285°
2026-05-08 20:22 72.38305 -113.16129 32215 ft 483 kts 285°
2026-05-08 20:22 72.40214 -113.33439 32215 ft 482 kts 284°
2026-05-08 20:23 72.42872 -113.57843 32216 ft 483 kts 284°
2026-05-08 20:23 72.45124 -113.78789 32217 ft 483 kts 284°
2026-05-08 20:24 72.47352 -113.99767 32218 ft 482 kts 284°
2026-05-08 20:24 72.49542 -114.20644 32219 ft 482 kts 284°
2026-05-08 20:25 72.51726 -114.41729 32220 ft 482 kts 284°
2026-05-08 20:25 72.53888 -114.62870 32223 ft 482 kts 284°
2026-05-08 20:26 72.56027 -114.84051 32229 ft 482 kts 284°
2026-05-08 20:26 72.58144 -115.05291 32230 ft 482 kts 284°
2026-05-08 20:27 72.60238 -115.26572 32240 ft 482 kts 284°
2026-05-08 20:27 72.62307 -115.47874 32243 ft 482 kts 284°
2026-05-08 20:28 72.64354 -115.69231 32243 ft 481 kts 284°
2026-05-08 20:28 72.66375 -115.90610 32251 ft 481 kts 284°
2026-05-08 20:29 72.68374 -116.12042 32251 ft 481 kts 283°
2026-05-08 20:29 72.70338 -116.33383 32251 ft 481 kts 283°
2026-05-08 20:30 72.72291 -116.54909 32251 ft 481 kts 283°
2026-05-08 20:30 72.74223 -116.76494 32343 ft 482 kts 283°
2026-05-08 20:31 72.75182 -116.87323 32579 ft 483 kts 283°
2026-05-08 20:31 72.76138 -116.98196 32834 ft 484 kts 283°
2026-05-08 20:31 72.77088 -117.09089 33099 ft 484 kts 283°
2026-05-08 20:31 72.78033 -117.19995 33351 ft 484 kts 283°
2026-05-08 20:32 72.78972 -117.30911 33615 ft 484 kts 283°
2026-05-08 20:32 72.79906 -117.41849 33852 ft 485 kts 283°
2026-05-08 20:32 72.80835 -117.52802 34089 ft 485 kts 283°
2026-05-08 20:32 72.81446 -117.60053 34215 ft 485 kts 283°
2026-05-08 20:33 72.83573 -117.85593 34251 ft 485 kts 283°
2026-05-08 20:33 72.85380 -118.07631 34251 ft 485 kts 282°
2026-05-08 20:34 72.87161 -118.29698 34250 ft 485 kts 282°
2026-05-08 20:35 72.89506 -118.59286 34251 ft 485 kts 282°
2026-05-08 20:35 72.91221 -118.81319 34251 ft 485 kts 282°
2026-05-08 20:36 72.92988 -119.03459 34252 ft 485 kts 283°
2026-05-08 20:36 72.94763 -119.25636 34251 ft 485 kts 281°
2026-05-08 20:37 72.96351 -119.48004 34252 ft 485 kts 281°
2026-05-08 20:37 72.97925 -119.70417 34247 ft 485 kts 281°
2026-05-08 20:38 72.99500 -119.92844 34236 ft 485 kts 281°
2026-05-08 20:38 73.00493 -120.15573 34233 ft 484 kts 273°
2026-05-08 20:39 73.00928 -120.38341 34232 ft 482 kts 271°
2026-05-08 20:39 73.01282 -120.61267 34232 ft 482 kts 271°
2026-05-08 20:40 73.01632 -120.84188 34232 ft 483 kts 271°
2026-05-08 20:40 73.01906 -121.07148 34231 ft 483 kts 270°
2026-05-08 20:41 73.02257 -121.30091 34231 ft 484 kts 274°
2026-05-08 20:41 73.02953 -121.53014 34232 ft 484 kts 273°
2026-05-08 20:42 73.03464 -121.75983 34231 ft 484 kts 272°
2026-05-08 20:42 73.03853 -121.99007 34231 ft 484 kts 271°
2026-05-08 20:43 73.04190 -122.22054 34231 ft 484 kts 271°
2026-05-08 20:43 73.04492 -122.44955 34231 ft 484 kts 271°
2026-05-08 20:44 73.04768 -122.68024 34231 ft 484 kts 270°
2026-05-08 20:44 73.05016 -122.91066 34231 ft 484 kts 270°
2026-05-08 20:45 73.05237 -123.14117 34230 ft 484 kts 270°
2026-05-08 20:45 73.05433 -123.37153 34231 ft 484 kts 270°
2026-05-08 20:46 73.05603 -123.60222 34230 ft 484 kts 270°
2026-05-08 20:46 73.05747 -123.83303 34231 ft 483 kts 269°
2026-05-08 20:47 73.05864 -124.06189 34230 ft 483 kts 269°
2026-05-08 20:47 73.05957 -124.29229 34232 ft 483 kts 269°
2026-05-08 20:48 73.06023 -124.52273 34232 ft 483 kts 269°
2026-05-08 20:48 73.06064 -124.75354 34232 ft 484 kts 269°
2026-05-08 20:49 73.06079 -124.98423 34232 ft 484 kts 268°
2026-05-08 20:49 73.06068 -125.21486 34232 ft 483 kts 268°
2026-05-08 20:50 73.06031 -125.44530 34225 ft 483 kts 268°
2026-05-08 20:50 73.05968 -125.67590 34224 ft 484 kts 268°
2026-05-08 20:51 73.05879 -125.90670 34223 ft 484 kts 268°
2026-05-08 20:51 73.05766 -126.13599 34224 ft 484 kts 268°
2026-05-08 20:52 73.05625 -126.36655 34223 ft 484 kts 267°
2026-05-08 20:52 73.05459 -126.59759 34223 ft 485 kts 267°
2026-05-08 20:53 73.05267 -126.82848 34223 ft 485 kts 267°
2026-05-08 20:53 73.05048 -127.05954 34223 ft 484 kts 266°
2026-05-08 20:54 73.04804 -127.29034 34228 ft 484 kts 266°
2026-05-08 20:54 73.04534 -127.52091 34228 ft 485 kts 266°
2026-05-08 20:55 73.04240 -127.75033 34228 ft 485 kts 266°
2026-05-08 20:55 73.03918 -127.98129 34227 ft 485 kts 266°
2026-05-08 20:56 73.03570 -128.21227 34227 ft 485 kts 266°
2026-05-08 20:56 73.03197 -128.44301 34227 ft 485 kts 265°
2026-05-08 20:57 73.02797 -128.67361 34227 ft 485 kts 265°
2026-05-08 20:57 73.02376 -128.90417 34226 ft 485 kts 266°
2026-05-08 20:58 73.02083 -129.13354 34226 ft 486 kts 266°
2026-05-08 20:58 73.01585 -129.36398 34227 ft 486 kts 264°
2026-05-08 20:59 73.01013 -129.59404 34226 ft 485 kts 264°
2026-05-08 20:59 73.00438 -129.82386 34227 ft 485 kts 264°
2026-05-08 21:00 72.99481 -130.05167 34228 ft 484 kts 255°
2026-05-08 21:00 72.97526 -130.27164 34226 ft 484 kts 250°
2026-05-08 21:01 72.95267 -130.48749 34226 ft 483 kts 249°
2026-05-08 21:01 72.93002 -130.70314 34226 ft 483 kts 249°
2026-05-08 21:02 72.90725 -130.91847 34226 ft 483 kts 249°
2026-05-08 21:02 72.88348 -131.13195 34225 ft 483 kts 250°
2026-05-08 21:03 72.86353 -131.34970 34227 ft 483 kts 252°
2026-05-08 21:03 72.84325 -131.56515 34226 ft 483 kts 251°
2026-05-08 21:04 72.82137 -131.78050 34226 ft 483 kts 250°
2026-05-08 21:04 72.79886 -131.99476 34226 ft 483 kts 249°
2026-05-08 21:05 72.77599 -132.20845 34226 ft 484 kts 249°
2026-05-08 21:05 72.75284 -132.42162 34226 ft 484 kts 249°
2026-05-08 21:06 72.72945 -132.63424 34225 ft 484 kts 249°
2026-05-08 21:06 72.70582 -132.84636 34226 ft 484 kts 249°
2026-05-08 21:07 72.68196 -133.05796 34225 ft 484 kts 248°
2026-05-08 21:07 72.65806 -133.26743 34197 ft 484 kts 248°
2026-05-08 21:08 72.63378 -133.47770 34196 ft 484 kts 248°
2026-05-08 21:08 72.60928 -133.68742 34203 ft 484 kts 248°
2026-05-08 21:09 72.58455 -133.89662 34203 ft 484 kts 248°
2026-05-08 21:09 72.55961 -134.10528 34204 ft 484 kts 247°
2026-05-08 21:10 72.53441 -134.31361 34204 ft 485 kts 247°
2026-05-08 21:10 72.50899 -134.52150 34204 ft 485 kts 247°
2026-05-08 21:11 72.48333 -134.72894 34204 ft 485 kts 247°
2026-05-08 21:11 72.45747 -134.93562 34198 ft 485 kts 246°
2026-05-08 21:12 72.43138 -135.14191 34213 ft 485 kts 246°
2026-05-08 21:12 72.40502 -135.34802 34222 ft 486 kts 246°
2026-05-08 21:13 72.37866 -135.55194 34223 ft 486 kts 246°
2026-05-08 21:13 72.35172 -135.75801 34222 ft 485 kts 246°
2026-05-08 21:14 72.32496 -135.96054 34222 ft 485 kts 245°
2026-05-08 21:14 72.29783 -136.16370 34223 ft 485 kts 245°
2026-05-08 21:15 72.27049 -136.36629 34228 ft 485 kts 245°
2026-05-08 21:15 72.24292 -136.56843 34228 ft 486 kts 245°
2026-05-08 21:16 72.21511 -136.77020 34228 ft 486 kts 245°
2026-05-08 21:16 72.18707 -136.97155 34228 ft 487 kts 245°
2026-05-08 21:17 72.15880 -137.17241 34228 ft 487 kts 244°
2026-05-08 21:17 72.13051 -137.37137 34228 ft 487 kts 244°
2026-05-08 21:18 72.10177 -137.57149 34228 ft 487 kts 244°
2026-05-08 21:18 72.07293 -137.77024 34225 ft 486 kts 244°
2026-05-08 21:19 72.04389 -137.96839 34225 ft 486 kts 244°
2026-05-08 21:19 72.01463 -138.16603 34216 ft 486 kts 243°
2026-05-08 21:20 71.98520 -138.36285 34215 ft 486 kts 243°
2026-05-08 21:20 71.95576 -138.55783 34215 ft 486 kts 243°
2026-05-08 21:21 71.92596 -138.75326 34216 ft 486 kts 243°
2026-05-08 21:21 71.89596 -138.94814 34216 ft 485 kts 243°
2026-05-08 21:22 71.86577 -139.14229 34216 ft 485 kts 243°
2026-05-08 21:22 71.83540 -139.33578 34216 ft 485 kts 242°
2026-05-08 21:23 71.80482 -139.52876 34217 ft 486 kts 242°
2026-05-08 21:23 71.77399 -139.72145 34217 ft 487 kts 242°
2026-05-08 21:24 71.74822 -139.88115 34217 ft 487 kts 242°
2026-05-08 21:24 71.71697 -140.07314 34217 ft 488 kts 242°
2026-05-08 21:25 71.68665 -140.26628 34217 ft 487 kts 243°
2026-05-08 21:25 71.65501 -140.45661 34218 ft 487 kts 241°
2026-05-08 21:26 71.62280 -140.64528 34218 ft 486 kts 241°
2026-05-08 21:26 71.59078 -140.83216 34218 ft 486 kts 241°
2026-05-08 21:27 71.55897 -141.02082 34218 ft 486 kts 243°
2026-05-08 21:27 71.53105 -141.21512 34213 ft 487 kts 246°
2026-05-08 21:28 71.50356 -141.41031 34205 ft 487 kts 245°
2026-05-08 21:28 71.47552 -141.60424 34206 ft 487 kts 245°
2026-05-08 21:29 71.44704 -141.79760 34207 ft 488 kts 244°
2026-05-08 21:29 71.41807 -141.99014 34208 ft 488 kts 244°
2026-05-08 21:30 71.39132 -142.18552 34208 ft 488 kts 246°
2026-05-08 21:30 71.36417 -142.38044 34209 ft 488 kts 245°
2026-05-08 21:31 71.33603 -142.57335 34209 ft 488 kts 245°
2026-05-08 21:31 71.30739 -142.76555 34211 ft 488 kts 244°
2026-05-08 21:32 71.27846 -142.95708 34211 ft 489 kts 244°
2026-05-08 21:32 71.24949 -143.14685 34211 ft 489 kts 244°
2026-05-08 21:33 71.22009 -143.33745 34212 ft 489 kts 244°
2026-05-08 21:33 71.19047 -143.52757 34212 ft 490 kts 244°
2026-05-08 21:34 71.16063 -143.71732 34227 ft 490 kts 243°
2026-05-08 21:34 71.13060 -143.90648 34230 ft 490 kts 243°
2026-05-08 21:35 71.10034 -144.09530 34230 ft 490 kts 243°
2026-05-08 21:35 71.06989 -144.28355 34230 ft 491 kts 243°
2026-05-08 21:36 71.03921 -144.47141 34230 ft 491 kts 243°
2026-05-08 21:36 71.00837 -144.65860 34231 ft 491 kts 243°
2026-05-08 21:37 70.97734 -144.84517 34232 ft 491 kts 243°
2026-05-08 21:37 70.94613 -145.03111 34232 ft 491 kts 242°
2026-05-08 21:38 70.91493 -145.21529 34232 ft 491 kts 242°
2026-05-08 21:38 70.88335 -145.40009 34233 ft 491 kts 242°
2026-05-08 21:39 70.85155 -145.58447 34234 ft 491 kts 242°
2026-05-08 21:39 70.81957 -145.76826 34235 ft 491 kts 242°
2026-05-08 21:40 70.78743 -145.95132 34235 ft 491 kts 242°
2026-05-08 21:40 70.75511 -146.13381 34236 ft 491 kts 241°
2026-05-08 21:41 70.70630 -146.40640 34238 ft 491 kts 241°
2026-05-08 21:41 70.67354 -146.58734 34241 ft 491 kts 241°
2026-05-08 21:42 70.64054 -146.76802 34241 ft 492 kts 241°
2026-05-08 21:42 70.60739 -146.94798 34241 ft 492 kts 241°
2026-05-08 21:43 70.57403 -147.12754 34241 ft 491 kts 240°
2026-05-08 21:43 70.54075 -147.30515 34241 ft 491 kts 240°
2026-05-08 21:44 70.50705 -147.48347 34240 ft 491 kts 240°
2026-05-08 21:44 70.47320 -147.66104 34240 ft 491 kts 240°
2026-05-08 21:45 70.43920 -147.83793 34241 ft 491 kts 240°
2026-05-08 21:45 70.40503 -148.01422 34241 ft 491 kts 240°
2026-05-08 21:46 70.37068 -148.18998 34240 ft 491 kts 240°
2026-05-08 21:46 70.33613 -148.36530 34240 ft 491 kts 239°
2026-05-08 21:47 70.30141 -148.54004 34242 ft 492 kts 239°
2026-05-08 21:47 70.26646 -148.71450 34242 ft 492 kts 239°
2026-05-08 21:48 70.23134 -148.88837 34245 ft 493 kts 239°
2026-05-08 21:48 70.19604 -149.06173 34243 ft 493 kts 239°
2026-05-08 21:49 70.16102 -149.23406 34245 ft 493 kts 240°
2026-05-08 21:49 70.12616 -149.40803 34244 ft 494 kts 239°
2026-05-08 21:50 70.08989 -149.57936 34243 ft 494 kts 238°
2026-05-08 21:50 70.05342 -149.75030 34246 ft 494 kts 238°
2026-05-08 21:51 70.01696 -149.92075 34245 ft 494 kts 238°
2026-05-08 21:51 69.98184 -150.09307 34244 ft 494 kts 242°
2026-05-08 21:52 69.94924 -150.26944 34243 ft 494 kts 242°
2026-05-08 21:52 69.91626 -150.44484 34249 ft 494 kts 242°
2026-05-08 21:53 69.88286 -150.61923 34251 ft 494 kts 241°
2026-05-08 21:53 69.84907 -150.79310 34251 ft 494 kts 241°
2026-05-08 21:54 69.81592 -150.96777 34250 ft 495 kts 243°
2026-05-08 21:54 69.78381 -151.14402 34246 ft 495 kts 242°
2026-05-08 21:55 69.75069 -151.31859 34240 ft 496 kts 242°
2026-05-08 21:56 69.70000 -151.57905 34233 ft 497 kts 241°
2026-05-08 21:56 69.66605 -151.75099 34225 ft 497 kts 241°
2026-05-08 21:57 69.63166 -151.92358 34221 ft 497 kts 241°
2026-05-08 21:57 69.59709 -152.09557 34212 ft 498 kts 241°
2026-05-08 21:58 69.56235 -152.26698 34204 ft 498 kts 241°
2026-05-08 21:58 69.52738 -152.43814 34194 ft 498 kts 240°
2026-05-08 21:59 69.49229 -152.60847 34185 ft 498 kts 240°
2026-05-08 21:59 69.45697 -152.77861 34176 ft 498 kts 240°
2026-05-08 22:00 69.42151 -152.94801 34166 ft 498 kts 240°
2026-05-08 22:00 69.38606 -153.11605 34159 ft 499 kts 240°
2026-05-08 22:01 69.35022 -153.28463 34150 ft 499 kts 240°
2026-05-08 22:01 69.31417 -153.45287 34142 ft 500 kts 240°
2026-05-08 22:02 69.27794 -153.62061 34136 ft 500 kts 240°
2026-05-08 22:02 69.24155 -153.78777 34135 ft 500 kts 240°
2026-05-08 22:03 69.20494 -153.95462 34131 ft 500 kts 239°
2026-05-08 22:03 69.16817 -154.12092 34126 ft 501 kts 240°
2026-05-08 22:04 69.13144 -154.28578 34122 ft 502 kts 239°
2026-05-08 22:04 69.09426 -154.45139 34119 ft 502 kts 239°
2026-05-08 22:05 69.05692 -154.61643 34115 ft 502 kts 239°
2026-05-08 22:05 69.01940 -154.78101 34114 ft 502 kts 239°
2026-05-08 22:06 68.98173 -154.94501 34164 ft 502 kts 239°
2026-05-08 22:06 68.94387 -155.10857 34169 ft 503 kts 239°
2026-05-08 22:07 68.90576 -155.27196 34164 ft 504 kts 239°
2026-05-08 22:07 68.86749 -155.43482 34160 ft 504 kts 239°
2026-05-08 22:08 68.82907 -155.59709 34155 ft 504 kts 239°
2026-05-08 22:08 68.79045 -155.75900 34138 ft 504 kts 239°
2026-05-08 22:09 68.75194 -155.91926 34129 ft 504 kts 238°
2026-05-08 22:09 68.71299 -156.08010 34124 ft 505 kts 238°
2026-05-08 22:10 68.67379 -156.24084 34118 ft 506 kts 238°
2026-05-08 22:10 68.63435 -156.40135 34116 ft 507 kts 238°
2026-05-08 22:11 68.59481 -156.56110 34117 ft 506 kts 238°
2026-05-08 22:11 68.55513 -156.72024 34112 ft 507 kts 238°
2026-05-08 22:12 68.51523 -156.87909 34106 ft 507 kts 238°
2026-05-08 22:12 68.47514 -157.03753 34101 ft 508 kts 238°
2026-05-08 22:13 68.44164 -157.16904 34095 ft 509 kts 238°
2026-05-08 22:13 68.40119 -157.32679 34074 ft 509 kts 238°
2026-05-08 22:14 68.36054 -157.48420 34069 ft 510 kts 238°
2026-05-08 22:14 68.31961 -157.64151 34066 ft 511 kts 238°
2026-05-08 22:15 68.27856 -157.79820 34062 ft 511 kts 238°
2026-05-08 22:15 68.23734 -157.95437 34080 ft 511 kts 238°
2026-05-08 22:16 68.19625 -158.10897 34080 ft 511 kts 237°
2026-05-08 22:16 68.15470 -158.26421 34076 ft 511 kts 237°
2026-05-08 22:17 68.11297 -158.41899 34073 ft 512 kts 237°
2026-05-08 22:17 68.07111 -158.57317 34053 ft 512 kts 237°
2026-05-08 22:18 68.02907 -158.72691 34045 ft 512 kts 237°
2026-05-08 22:18 67.98688 -158.88012 34044 ft 513 kts 237°
2026-05-08 22:19 67.94451 -159.03292 34043 ft 513 kts 237°
2026-05-08 22:19 67.90196 -159.18531 34042 ft 513 kts 237°
2026-05-08 22:20 67.85921 -159.33731 34038 ft 514 kts 237°
2026-05-08 22:20 67.81635 -159.48871 34037 ft 514 kts 237°
2026-05-08 22:21 67.77325 -159.63987 34037 ft 515 kts 237°
2026-05-08 22:21 67.73001 -159.79047 34037 ft 515 kts 237°
2026-05-08 22:22 67.68663 -159.94053 34037 ft 515 kts 237°
2026-05-08 22:22 67.64341 -160.08904 34047 ft 515 kts 237°
2026-05-08 22:23 67.59973 -160.23808 34048 ft 515 kts 237°
2026-05-08 22:23 67.55590 -160.38663 34047 ft 516 kts 237°
2026-05-08 22:24 67.51188 -160.53484 34045 ft 516 kts 237°
2026-05-08 22:24 67.46768 -160.68262 34044 ft 516 kts 236°
2026-05-08 22:25 67.42337 -160.82978 34045 ft 516 kts 236°
2026-05-08 22:25 67.37890 -160.97647 34045 ft 517 kts 236°
2026-05-08 22:26 67.33426 -161.12275 34053 ft 517 kts 236°
2026-05-08 22:26 67.28948 -161.26850 34051 ft 517 kts 236°
2026-05-08 22:27 67.24456 -161.41376 34053 ft 517 kts 236°
2026-05-08 22:27 67.19945 -161.55865 34053 ft 518 kts 236°
2026-05-08 22:28 67.15420 -161.70304 34054 ft 518 kts 236°
2026-05-08 22:28 67.10884 -161.84683 34051 ft 518 kts 236°
2026-05-08 22:29 67.06418 -161.99045 34054 ft 517 kts 236°
2026-05-08 22:29 67.01855 -162.13356 34055 ft 518 kts 236°
2026-05-08 22:30 66.97244 -162.27545 34057 ft 519 kts 235°
2026-05-08 22:30 66.92620 -162.41705 34059 ft 519 kts 235°
2026-05-08 22:31 66.87999 -162.55846 34059 ft 519 kts 236°
2026-05-08 22:31 66.83537 -162.70225 34060 ft 518 kts 237°
2026-05-08 22:32 66.79108 -162.84486 34060 ft 518 kts 237°
2026-05-08 22:32 66.74625 -162.98739 34061 ft 517 kts 237°
2026-05-08 22:33 66.70118 -163.12929 34065 ft 517 kts 237°
2026-05-08 22:33 66.65628 -163.27134 34069 ft 517 kts 238°
2026-05-08 22:34 66.61233 -163.41478 34072 ft 517 kts 238°
2026-05-08 22:34 66.56768 -163.55660 34075 ft 517 kts 237°
2026-05-08 22:35 66.52267 -163.69742 34079 ft 517 kts 237°
2026-05-08 22:35 66.47746 -163.83761 34083 ft 518 kts 237°
2026-05-08 22:36 66.43198 -163.97757 34087 ft 518 kts 237°
2026-05-08 22:36 66.38644 -164.11678 34091 ft 518 kts 237°
2026-05-08 22:37 66.34078 -164.25548 34096 ft 518 kts 237°
2026-05-08 22:37 66.29522 -164.39300 34102 ft 518 kts 236°
2026-05-08 22:38 66.24898 -164.53167 34080 ft 518 kts 236°
2026-05-08 22:38 66.20323 -164.66801 34116 ft 517 kts 236°
2026-05-08 22:39 66.15715 -164.80449 34127 ft 516 kts 236°
2026-05-08 22:39 66.11094 -164.94051 34132 ft 516 kts 236°
2026-05-08 22:40 66.06467 -165.07585 34142 ft 516 kts 236°
2026-05-08 22:40 66.01833 -165.21056 34146 ft 515 kts 236°
2026-05-08 22:41 65.97188 -165.34480 34146 ft 515 kts 235°
2026-05-08 22:41 65.92530 -165.47854 34150 ft 516 kts 235°
2026-05-08 22:42 65.87897 -165.61076 34151 ft 515 kts 235°
2026-05-08 22:42 65.83223 -165.74333 34151 ft 515 kts 234°
2026-05-08 22:43 65.78540 -165.87537 34150 ft 515 kts 234°
2026-05-08 22:43 65.73841 -166.00707 34214 ft 516 kts 234°
2026-05-08 22:43 65.71479 -166.07299 34483 ft 516 kts 234°
2026-05-08 22:44 65.69121 -166.13857 34772 ft 515 kts 234°
2026-05-08 22:44 65.66762 -166.20400 35007 ft 516 kts 234°
2026-05-08 22:44 65.64394 -166.26948 35243 ft 516 kts 233°
2026-05-08 22:44 65.62028 -166.33469 35544 ft 514 kts 233°
2026-05-08 22:45 65.59665 -166.39962 35800 ft 514 kts 233°
2026-05-08 22:45 65.57301 -166.46440 36054 ft 513 kts 233°
2026-05-08 22:45 65.54938 -166.52895 36146 ft 513 kts 233°
2026-05-08 22:46 65.50199 -166.65782 36146 ft 513 kts 232°
2026-05-08 22:46 65.45451 -166.78619 36146 ft 513 kts 232°
2026-05-08 22:47 65.40701 -166.91387 36147 ft 513 kts 232°
2026-05-08 22:47 65.35932 -167.04130 36147 ft 513 kts 232°
2026-05-08 22:48 65.31153 -167.16824 36148 ft 512 kts 232°
2026-05-08 22:48 65.26372 -167.29451 36148 ft 512 kts 231°
2026-05-08 22:49 65.21618 -167.41937 36148 ft 512 kts 231°
2026-05-08 22:49 65.14479 -167.60827 36148 ft 512 kts 231°
2026-05-08 22:50 65.09648 -167.73260 36147 ft 512 kts 231°
2026-05-08 22:50 65.04794 -167.85646 36146 ft 512 kts 231°
2026-05-08 22:51 64.99942 -167.97991 36146 ft 512 kts 230°
2026-05-08 22:51 64.95111 -168.10358 36145 ft 512 kts 231°
2026-05-08 22:52 64.90320 -168.22759 36150 ft 511 kts 231°
2026-05-08 22:52 64.85509 -168.35086 36149 ft 511 kts 230°
2026-05-08 22:53 64.80711 -168.47289 36149 ft 512 kts 230°
2026-05-08 22:53 64.75864 -168.59523 36148 ft 512 kts 230°
2026-05-08 22:54 64.71083 -168.71837 36149 ft 511 kts 231°
2026-05-08 22:54 64.66320 -168.84176 36149 ft 511 kts 231°
2026-05-08 22:55 64.61507 -168.96398 36149 ft 511 kts 230°
2026-05-08 22:55 64.56676 -169.08533 36150 ft 511 kts 230°
2026-05-08 22:56 64.51831 -169.20611 36156 ft 510 kts 230°
2026-05-08 22:56 64.46970 -169.32654 36161 ft 511 kts 230°
2026-05-08 22:57 64.42103 -169.44641 36163 ft 511 kts 229°
2026-05-08 22:57 64.37252 -169.56521 36164 ft 511 kts 229°
2026-05-08 22:58 64.32366 -169.68419 36164 ft 511 kts 229°
2026-05-08 22:58 64.27468 -169.80283 36165 ft 511 kts 229°
2026-05-08 22:59 64.22562 -169.92101 36166 ft 511 kts 229°
2026-05-08 22:59 64.17646 -170.03877 36167 ft 510 kts 229°
2026-05-08 23:00 64.12723 -170.15606 36167 ft 511 kts 229°
2026-05-08 23:00 64.07789 -170.27297 36168 ft 511 kts 228°
2026-05-08 23:01 64.02848 -170.38942 36169 ft 511 kts 228°
2026-05-08 23:01 63.97895 -170.50551 36169 ft 511 kts 228°
2026-05-08 23:02 63.93775 -170.60161 36170 ft 510 kts 228°
2026-05-08 23:02 63.88013 -170.73528 36170 ft 509 kts 227°
2026-05-08 23:03 63.83053 -170.84969 36170 ft 508 kts 227°
2026-05-08 23:03 63.78095 -170.96341 36170 ft 507 kts 227°
2026-05-08 23:04 63.73977 -171.05743 36170 ft 506 kts 227°
2026-05-08 23:04 63.69014 -171.17021 36170 ft 506 kts 227°
2026-05-08 23:05 63.64044 -171.28253 36169 ft 506 kts 227°
2026-05-08 23:05 63.59073 -171.39430 36169 ft 505 kts 226°
2026-05-08 23:06 63.54094 -171.50563 36169 ft 505 kts 226°
2026-05-08 23:06 63.49110 -171.61653 36169 ft 505 kts 226°
2026-05-08 23:07 63.44115 -171.72709 36169 ft 505 kts 226°
2026-05-08 23:07 63.39115 -171.83717 36169 ft 505 kts 226°
2026-05-08 23:08 63.34112 -171.94677 36168 ft 504 kts 226°
2026-05-08 23:08 63.29092 -172.05617 36159 ft 504 kts 226°
2026-05-08 23:09 63.24112 -172.16414 36158 ft 503 kts 225°
2026-05-08 23:09 63.19098 -172.27229 36158 ft 503 kts 225°
2026-05-08 23:10 63.14071 -172.38018 36159 ft 502 kts 225°
2026-05-08 23:10 63.09050 -172.48739 36158 ft 502 kts 225°
2026-05-08 23:11 63.04023 -172.59418 36158 ft 501 kts 225°
2026-05-08 23:11 62.98990 -172.70056 36158 ft 501 kts 225°
2026-05-08 23:12 62.93951 -172.80653 36157 ft 501 kts 225°
2026-05-08 23:12 62.88908 -172.91206 36157 ft 501 kts 224°
2026-05-08 23:13 62.83886 -173.01663 36156 ft 501 kts 224°
2026-05-08 23:13 62.78830 -173.12140 36155 ft 501 kts 224°
2026-05-08 23:14 62.73769 -173.22573 36155 ft 500 kts 224°
2026-05-08 23:14 62.68699 -173.32973 36154 ft 500 kts 224°
2026-05-08 23:15 62.63614 -173.43354 36153 ft 500 kts 224°
2026-05-08 23:15 62.58530 -173.53680 36153 ft 500 kts 223°
2026-05-08 23:16 62.53442 -173.63966 36152 ft 500 kts 223°
2026-05-08 23:16 62.48345 -173.74217 36151 ft 500 kts 223°
2026-05-08 23:17 62.43277 -173.84362 36150 ft 500 kts 223°
2026-05-08 23:17 62.38174 -173.94527 36149 ft 499 kts 223°
2026-05-08 23:18 62.33064 -174.04657 36148 ft 499 kts 223°
2026-05-08 23:18 62.27945 -174.14755 36147 ft 499 kts 223°
2026-05-08 23:19 62.22816 -174.24825 36151 ft 499 kts 222°
2026-05-08 23:19 62.17684 -174.34852 36150 ft 499 kts 222°
2026-05-08 23:20 62.12537 -174.44860 36150 ft 499 kts 222°
2026-05-08 23:20 62.07387 -174.54827 36149 ft 499 kts 222°
2026-05-08 23:21 62.02225 -174.64768 36148 ft 499 kts 222°
2026-05-08 23:21 61.97066 -174.74657 36148 ft 499 kts 221°
2026-05-08 23:22 61.91935 -174.84444 36146 ft 499 kts 221°
2026-05-08 23:22 61.86768 -174.94255 36146 ft 498 kts 221°
2026-05-08 23:23 61.81597 -175.04028 36145 ft 499 kts 221°
2026-05-08 23:23 61.76416 -175.13774 36144 ft 498 kts 221°
2026-05-08 23:24 61.71227 -175.23487 36143 ft 498 kts 221°
2026-05-08 23:24 61.66027 -175.33177 36142 ft 498 kts 221°
2026-05-08 23:25 61.60830 -175.42815 36141 ft 498 kts 220°
2026-05-08 23:25 61.55623 -175.52427 36140 ft 498 kts 220°
2026-05-08 23:26 61.50446 -175.61941 36139 ft 498 kts 220°
2026-05-08 23:26 61.45225 -175.71489 36139 ft 498 kts 220°
2026-05-08 23:27 61.40000 -175.81003 36137 ft 498 kts 220°
2026-05-08 23:27 61.34771 -175.90479 36136 ft 498 kts 220°
2026-05-08 23:28 61.29529 -175.99934 36136 ft 498 kts 220°
2026-05-08 23:28 61.24287 -176.09348 36134 ft 498 kts 220°
2026-05-08 23:29 61.19039 -176.18728 36133 ft 498 kts 220°
2026-05-08 23:29 61.13785 -176.28076 36133 ft 497 kts 219°
2026-05-08 23:30 61.08528 -176.37389 36131 ft 497 kts 219°
2026-05-08 23:30 61.03294 -176.46617 36130 ft 497 kts 219°
2026-05-08 23:31 60.98028 -176.55861 36129 ft 497 kts 219°
2026-05-08 23:31 60.92757 -176.65071 36128 ft 497 kts 219°
2026-05-08 23:32 60.87474 -176.74261 36127 ft 497 kts 219°
2026-05-08 23:32 60.82188 -176.83416 36126 ft 497 kts 219°
2026-05-08 23:33 60.76903 -176.92528 36125 ft 496 kts 219°
2026-05-08 23:33 60.71621 -177.01594 36124 ft 496 kts 219°
2026-05-08 23:34 60.66333 -177.10630 36123 ft 496 kts 219°
2026-05-08 23:34 60.61037 -177.19640 36122 ft 496 kts 219°
2026-05-08 23:35 60.55736 -177.28621 36121 ft 496 kts 218°
2026-05-08 23:35 60.50431 -177.37567 36120 ft 496 kts 218°
2026-05-08 23:36 60.45114 -177.46494 36129 ft 495 kts 218°
2026-05-08 23:36 60.39833 -177.55455 36129 ft 495 kts 218°
2026-05-08 23:37 60.34543 -177.64249 36127 ft 495 kts 218°
2026-05-08 23:37 60.29206 -177.73042 36127 ft 495 kts 218°
2026-05-08 23:38 60.23872 -177.81801 36126 ft 494 kts 218°
2026-05-08 23:38 60.18686 -177.90875 36129 ft 495 kts 224°
2026-05-08 23:39 60.14110 -178.01219 36125 ft 496 kts 229°
2026-05-08 23:39 60.09694 -178.11874 36124 ft 496 kts 229°
2026-05-08 23:40 60.05235 -178.22441 36123 ft 496 kts 229°
2026-05-08 23:40 60.00786 -178.32859 36123 ft 496 kts 228°
2026-05-08 23:41 59.96297 -178.43322 36122 ft 496 kts 229°
2026-05-08 23:41 59.91888 -178.53892 36122 ft 495 kts 229°
2026-05-08 23:42 59.87437 -178.64369 36122 ft 495 kts 228°
2026-05-08 23:42 59.82961 -178.74783 36123 ft 495 kts 228°
2026-05-08 23:43 59.78475 -178.85143 36123 ft 494 kts 228°
2026-05-08 23:43 59.73984 -178.95460 36121 ft 494 kts 228°
2026-05-08 23:44 59.69488 -179.05736 36120 ft 493 kts 227°
2026-05-08 23:44 59.64985 -179.15983 36119 ft 494 kts 227°
2026-05-08 23:45 59.60471 -179.26206 36118 ft 493 kts 227°
2026-05-08 23:45 59.55955 -179.36391 36116 ft 493 kts 227°
2026-05-08 23:46 59.51430 -179.46549 36116 ft 492 kts 227°
2026-05-08 23:46 59.46904 -179.56667 36114 ft 492 kts 227°
2026-05-08 23:47 59.42401 -179.66688 36113 ft 492 kts 227°
2026-05-08 23:47 59.37858 -179.76755 36040 ft 493 kts 227°
2026-05-08 23:48 59.33300 -179.86807 35970 ft 492 kts 226°
2026-05-08 23:48 59.28748 -179.96806 35963 ft 492 kts 226°
2026-05-08 23:49 59.24186 179.93217 36004 ft 492 kts 226°
2026-05-08 23:49 59.19621 179.83279 36061 ft 492 kts 226°
2026-05-08 23:50 59.15044 179.73355 36047 ft 492 kts 226°
2026-05-08 23:50 59.10463 179.63467 36045 ft 491 kts 226°
2026-05-08 23:51 59.05908 179.53676 36044 ft 491 kts 226°
2026-05-08 23:51 59.01315 179.43846 36042 ft 491 kts 225°
2026-05-08 23:52 58.97495 179.35703 36041 ft 491 kts 225°
2026-05-08 23:52 58.92115 179.24283 36039 ft 491 kts 225°
2026-05-08 23:53 58.88280 179.16178 36038 ft 491 kts 225°
2026-05-08 23:53 58.82911 179.04877 36037 ft 491 kts 225°
2026-05-08 23:54 58.79039 178.96762 36035 ft 490 kts 225°
2026-05-08 23:55 58.72094 178.82278 36033 ft 490 kts 225°
2026-05-08 23:55 58.67487 178.72721 36032 ft 490 kts 225°
2026-05-08 23:56 58.62842 178.63126 36030 ft 490 kts 225°
2026-05-08 23:56 58.58194 178.53564 36029 ft 490 kts 224°
2026-05-08 23:57 58.53543 178.44034 36027 ft 490 kts 224°
2026-05-08 23:57 58.48879 178.34519 36026 ft 490 kts 224°
2026-05-08 23:58 58.44212 178.25037 36025 ft 490 kts 224°
2026-05-08 23:58 58.39539 178.15583 36023 ft 489 kts 224°
2026-05-08 23:59 58.34861 178.06158 36023 ft 489 kts 224°
2026-05-08 23:59 58.30173 177.96749 36020 ft 490 kts 224°
2026-05-09 00:00 58.25505 177.87422 36019 ft 489 kts 224°
2026-05-09 00:00 58.20811 177.78079 36018 ft 489 kts 224°
2026-05-09 00:01 58.16108 177.68757 36016 ft 489 kts 224°
2026-05-09 00:01 58.11396 177.59456 36014 ft 489 kts 223°
2026-05-09 00:02 58.06678 177.50179 36002 ft 489 kts 223°
2026-05-09 00:02 58.01952 177.40926 35998 ft 489 kts 223°
2026-05-09 00:03 57.97220 177.31699 35997 ft 489 kts 223°
2026-05-09 00:03 57.92478 177.22488 35996 ft 489 kts 223°
2026-05-09 00:04 57.87739 177.13320 35995 ft 489 kts 223°
2026-05-09 00:04 57.83025 177.04237 35994 ft 489 kts 223°
2026-05-09 00:05 57.78276 176.95122 35992 ft 488 kts 223°
2026-05-09 00:05 57.73518 176.86028 35991 ft 488 kts 223°
2026-05-09 00:06 57.68786 176.76887 35989 ft 488 kts 223°
2026-05-09 00:06 57.64021 176.67855 35988 ft 488 kts 222°
2026-05-09 00:07 57.59238 176.58873 35987 ft 488 kts 222°
2026-05-09 00:07 57.54450 176.49909 35986 ft 488 kts 222°
2026-05-09 00:08 57.49663 176.40958 35985 ft 488 kts 222°
2026-05-09 00:08 57.44945 176.32013 35983 ft 488 kts 223°
2026-05-09 00:09 57.40195 176.23049 35983 ft 487 kts 223°
2026-05-09 00:09 57.35437 176.14119 35981 ft 486 kts 223°
2026-05-09 00:10 57.30677 176.05227 35980 ft 486 kts 223°
2026-05-09 00:10 57.25906 175.96350 35978 ft 486 kts 223°
2026-05-09 00:11 57.21195 175.87379 35978 ft 486 kts 223°
2026-05-09 00:11 57.16467 175.78475 35976 ft 486 kts 223°
2026-05-09 00:12 57.11713 175.69615 35975 ft 486 kts 223°
2026-05-09 00:12 57.06942 175.60783 35974 ft 486 kts 223°
2026-05-09 00:13 57.02171 175.51993 35973 ft 486 kts 222°
2026-05-09 00:13 56.97424 175.43283 35972 ft 486 kts 222°
2026-05-09 00:14 56.92641 175.34543 35971 ft 486 kts 222°
2026-05-09 00:14 56.87850 175.25821 35970 ft 485 kts 222°
2026-05-09 00:15 56.83059 175.17134 35969 ft 485 kts 222°
2026-05-09 00:15 56.78257 175.08459 35968 ft 486 kts 222°
2026-05-09 00:16 56.73452 174.99812 35967 ft 485 kts 222°
2026-05-09 00:16 56.68635 174.91177 35967 ft 485 kts 222°
2026-05-09 00:17 56.63824 174.82584 35966 ft 485 kts 222°
2026-05-09 00:17 56.59005 174.74011 35964 ft 485 kts 222°
2026-05-09 00:18 56.54215 174.65519 35964 ft 485 kts 222°
2026-05-09 00:18 56.49386 174.56992 35963 ft 484 kts 222°
2026-05-09 00:19 56.44551 174.48486 35962 ft 484 kts 222°
2026-05-09 00:19 56.39717 174.40013 35961 ft 484 kts 222°
2026-05-09 00:20 56.34881 174.31568 35961 ft 484 kts 222°
2026-05-09 00:20 56.30037 174.23141 35960 ft 484 kts 222°
2026-05-09 00:21 56.25187 174.14734 35959 ft 484 kts 222°
2026-05-09 00:21 56.20337 174.06359 35949 ft 483 kts 222°
2026-05-09 00:22 56.15481 173.98005 35947 ft 484 kts 222°
2026-05-09 00:22 56.10618 173.89668 35946 ft 484 kts 222°
2026-05-09 00:23 56.05747 173.81350 35946 ft 484 kts 222°
2026-05-09 00:23 56.00872 173.73054 35946 ft 483 kts 222°
2026-05-09 00:24 55.95994 173.64784 35945 ft 483 kts 222°
2026-05-09 00:24 55.91142 173.56588 35945 ft 483 kts 222°
2026-05-09 00:25 55.86264 173.48378 35944 ft 482 kts 222°
2026-05-09 00:25 55.81387 173.40198 35944 ft 482 kts 222°
2026-05-09 00:26 55.76504 173.32038 35943 ft 481 kts 223°
2026-05-09 00:26 55.71621 173.23908 35943 ft 481 kts 223°
2026-05-09 00:27 55.66731 173.15797 35943 ft 481 kts 223°
2026-05-09 00:27 55.61840 173.07712 35943 ft 480 kts 223°
2026-05-09 00:28 55.56951 172.99659 35942 ft 480 kts 223°
2026-05-09 00:28 55.52062 172.91633 35942 ft 480 kts 223°
2026-05-09 00:29 55.47199 172.83680 35941 ft 479 kts 223°
2026-05-09 00:29 55.42307 172.75707 35941 ft 479 kts 223°
2026-05-09 00:30 55.37405 172.67747 35941 ft 479 kts 223°
2026-05-09 00:30 55.32497 172.59804 35941 ft 479 kts 223°
2026-05-09 00:31 55.27587 172.51886 35941 ft 479 kts 223°
2026-05-09 00:31 55.22682 172.44003 35940 ft 479 kts 223°
2026-05-09 00:32 55.17765 172.36128 35940 ft 479 kts 223°
2026-05-09 00:32 55.12880 172.28228 35940 ft 478 kts 223°
2026-05-09 00:33 55.07959 172.20412 35940 ft 478 kts 223°
2026-05-09 00:33 55.03059 172.12686 35939 ft 477 kts 223°
2026-05-09 00:34 54.98132 172.04937 35939 ft 477 kts 223°
2026-05-09 00:34 54.93271 171.97091 35940 ft 475 kts 227°
2026-05-09 00:35 54.88944 171.88436 35939 ft 473 kts 232°
2026-05-09 00:35 54.84808 171.79561 35938 ft 472 kts 232°
2026-05-09 00:36 54.80638 171.70760 35939 ft 472 kts 232°
2026-05-09 00:36 54.76441 171.61996 35938 ft 472 kts 231°
2026-05-09 00:37 54.72238 171.53269 35938 ft 472 kts 231°
2026-05-09 00:37 54.68086 171.44490 35938 ft 471 kts 232°
2026-05-09 00:38 54.63922 171.35740 35938 ft 471 kts 232°
2026-05-09 00:38 54.59738 171.27047 35936 ft 471 kts 232°
2026-05-09 00:39 54.55532 171.18364 35936 ft 471 kts 232°
2026-05-09 00:39 54.51356 171.09782 35935 ft 470 kts 231°
2026-05-09 00:40 54.47144 171.01158 35936 ft 470 kts 231°
2026-05-09 00:40 54.42928 170.92560 35936 ft 470 kts 231°
2026-05-09 00:41 54.36608 170.79724 35935 ft 469 kts 231°
2026-05-09 00:41 54.33106 170.72643 35935 ft 468 kts 232°
2026-05-09 00:42 54.28891 170.64145 35934 ft 468 kts 232°
2026-05-09 00:42 54.24675 170.55675 35935 ft 468 kts 232°
2026-05-09 00:43 54.20452 170.47218 35934 ft 467 kts 232°
2026-05-09 00:43 54.16232 170.38799 35934 ft 466 kts 232°
2026-05-09 00:44 54.12017 170.30417 35933 ft 465 kts 232°
2026-05-09 00:44 54.07796 170.22052 35933 ft 465 kts 232°
2026-05-09 00:45 54.03575 170.13715 35933 ft 465 kts 232°
2026-05-09 00:45 53.99350 170.05398 35932 ft 464 kts 232°
2026-05-09 00:46 53.95118 169.97097 35932 ft 465 kts 232°
2026-05-09 00:46 53.90878 169.88806 35932 ft 465 kts 231°
2026-05-09 00:47 53.86636 169.80541 35931 ft 464 kts 231°
2026-05-09 00:47 53.82443 169.72331 35931 ft 463 kts 232°
2026-05-09 00:48 53.78224 169.64103 35931 ft 462 kts 231°
2026-05-09 00:48 53.73974 169.55939 35930 ft 462 kts 232°
2026-05-09 00:49 53.69731 169.47822 35930 ft 461 kts 232°
2026-05-09 00:49 53.65490 169.39727 35925 ft 460 kts 232°
2026-05-09 00:50 53.61655 169.31190 35926 ft 455 kts 241°
2026-05-09 00:50 53.58576 169.21905 35923 ft 452 kts 245°
2026-05-09 00:51 53.55646 169.12565 35921 ft 451 kts 244°
2026-05-09 00:51 53.52691 169.03363 35922 ft 450 kts 244°
2026-05-09 00:52 53.49701 168.94134 35920 ft 450 kts 244°
2026-05-09 00:52 53.46702 168.84918 35920 ft 449 kts 244°
2026-05-09 00:53 53.43802 168.75646 35919 ft 449 kts 245°
2026-05-09 00:53 53.40835 168.66444 35918 ft 449 kts 244°
2026-05-09 00:54 53.37816 168.57285 35917 ft 449 kts 244°
2026-05-09 00:54 53.34790 168.48144 35917 ft 449 kts 244°
2026-05-09 00:55 53.31762 168.39012 35915 ft 448 kts 244°
2026-05-09 00:55 53.28733 168.29901 35914 ft 448 kts 243°
2026-05-09 00:56 53.25680 168.20823 35913 ft 448 kts 243°
2026-05-09 00:56 53.22617 168.11764 35912 ft 448 kts 243°
2026-05-09 00:57 53.19546 168.02723 35912 ft 447 kts 243°
2026-05-09 00:57 53.16494 167.93774 35911 ft 446 kts 243°
2026-05-09 00:58 53.13418 167.84784 35909 ft 445 kts 244°
2026-05-09 00:58 53.10430 167.75781 35909 ft 444 kts 244°
2026-05-09 00:59 53.07422 167.66831 35908 ft 443 kts 244°
2026-05-09 00:59 53.04395 167.57932 35907 ft 442 kts 244°
2026-05-09 01:00 53.01358 167.49067 35906 ft 441 kts 244°
2026-05-09 01:00 52.98313 167.40222 35905 ft 441 kts 243°
2026-05-09 01:01 52.95264 167.31404 35903 ft 440 kts 243°
2026-05-09 01:01 52.92232 167.22668 35902 ft 439 kts 243°
2026-05-09 01:02 52.89176 167.13891 35891 ft 439 kts 243°
2026-05-09 01:02 52.86122 167.05154 35889 ft 438 kts 243°
2026-05-09 01:03 52.83066 166.96442 35889 ft 437 kts 243°
2026-05-09 01:03 52.80008 166.87754 35887 ft 437 kts 243°
2026-05-09 01:04 52.76949 166.79094 35886 ft 436 kts 243°
2026-05-09 01:04 52.73887 166.70454 35885 ft 436 kts 243°
2026-05-09 01:05 52.70823 166.61839 35885 ft 435 kts 243°
2026-05-09 01:06 52.66250 166.49038 35884 ft 433 kts 243°
2026-05-09 01:06 52.63192 166.40512 35884 ft 432 kts 243°
2026-05-09 01:07 52.60130 166.32004 35882 ft 431 kts 243°
2026-05-09 01:07 52.57073 166.23540 35881 ft 429 kts 243°
2026-05-09 01:08 52.54019 166.15111 35879 ft 428 kts 243°
2026-05-09 01:08 52.50970 166.06726 35891 ft 427 kts 243°
2026-05-09 01:09 52.47917 165.98357 35892 ft 427 kts 243°
2026-05-09 01:09 52.44889 165.90084 35892 ft 426 kts 243°
2026-05-09 01:10 52.41835 165.81765 35891 ft 426 kts 243°
2026-05-09 01:10 52.38776 165.73464 35891 ft 426 kts 243°
2026-05-09 01:11 52.35712 165.65174 35890 ft 426 kts 243°
2026-05-09 01:11 52.32644 165.56899 35889 ft 425 kts 243°
2026-05-09 01:12 52.29567 165.48629 35889 ft 426 kts 243°
2026-05-09 01:12 52.26480 165.40360 35888 ft 427 kts 243°
2026-05-09 01:13 52.23388 165.32101 35887 ft 427 kts 243°
2026-05-09 01:13 52.20279 165.23827 35886 ft 427 kts 243°
2026-05-09 01:14 52.17168 165.15574 35886 ft 428 kts 243°
2026-05-09 01:14 52.14047 165.07320 35886 ft 427 kts 243°
2026-05-09 01:15 52.10924 164.99089 35885 ft 427 kts 243°
2026-05-09 01:15 52.07797 164.90872 35884 ft 426 kts 243°
2026-05-09 01:16 52.04674 164.82692 35883 ft 426 kts 243°
2026-05-09 01:16 52.01568 164.74585 35883 ft 425 kts 243°
2026-05-09 01:17 51.96905 164.62460 35882 ft 417 kts 243°
2026-05-09 01:17 51.93841 164.54522 35882 ft 415 kts 243°
2026-05-09 01:18 51.90768 164.46588 35882 ft 417 kts 243°
2026-05-09 01:18 51.87679 164.38637 35881 ft 418 kts 243°
2026-05-09 01:19 51.84581 164.30686 35880 ft 417 kts 243°
2026-05-09 01:19 51.81481 164.22755 35880 ft 417 kts 242°
2026-05-09 01:20 51.78375 164.14832 35880 ft 417 kts 243°
2026-05-09 01:20 51.75304 164.06882 35879 ft 417 kts 243°
2026-05-09 01:21 51.72186 163.98978 35878 ft 417 kts 242°
2026-05-09 01:21 51.69050 163.91097 35878 ft 417 kts 242°
2026-05-09 01:22 51.65909 163.83230 35878 ft 417 kts 242°
2026-05-09 01:22 51.62794 163.75439 35877 ft 416 kts 242°
2026-05-09 01:23 51.59666 163.67621 35877 ft 415 kts 242°
2026-05-09 01:23 51.56524 163.59823 35877 ft 415 kts 242°
2026-05-09 01:24 51.53381 163.52060 35877 ft 414 kts 242°
2026-05-09 01:24 51.50234 163.44318 35877 ft 413 kts 242°
2026-05-09 01:25 51.47090 163.36608 35876 ft 413 kts 242°
2026-05-09 01:25 51.43950 163.28931 35875 ft 411 kts 242°
2026-05-09 01:26 51.40832 163.21257 35875 ft 410 kts 242°
2026-05-09 01:26 51.37755 163.13559 35874 ft 410 kts 242°
2026-05-09 01:27 51.34661 163.05925 35875 ft 409 kts 242°
2026-05-09 01:27 51.31547 162.98306 35875 ft 409 kts 242°
2026-05-09 01:28 51.28430 162.90717 35874 ft 408 kts 242°
2026-05-09 01:28 51.25310 162.83151 35873 ft 407 kts 241°
2026-05-09 01:29 51.22714 162.76872 35873 ft 407 kts 241°
2026-05-09 01:29 51.19591 162.69344 35873 ft 407 kts 241°
2026-05-09 01:30 51.15959 162.60616 35873 ft 406 kts 241°
2026-05-09 01:30 51.13335 162.54329 35873 ft 406 kts 241°
2026-05-09 01:31 51.10221 162.46887 35873 ft 406 kts 241°
2026-05-09 01:31 51.07091 162.39429 35872 ft 405 kts 241°
2026-05-09 01:32 51.03955 162.31977 35872 ft 405 kts 241°
2026-05-09 01:32 51.00820 162.24550 35873 ft 404 kts 241°
2026-05-09 01:33 50.97688 162.17148 35872 ft 403 kts 241°
2026-05-09 01:33 50.94560 162.09780 35871 ft 402 kts 241°
2026-05-09 01:34 50.91433 162.02435 35872 ft 401 kts 241°
2026-05-09 01:34 50.88330 161.95165 35871 ft 400 kts 241°
2026-05-09 01:35 50.85218 161.87894 35870 ft 398 kts 241°
2026-05-09 01:35 50.82106 161.80644 35870 ft 398 kts 241°
2026-05-09 01:36 50.78992 161.73411 35871 ft 398 kts 241°
2026-05-09 01:36 50.75878 161.66195 35870 ft 397 kts 240°
2026-05-09 01:37 50.72763 161.58998 35870 ft 396 kts 240°
2026-05-09 01:37 50.69649 161.51822 35870 ft 396 kts 240°
2026-05-09 01:38 50.66534 161.44667 35869 ft 395 kts 240°
2026-05-09 01:38 50.63417 161.37522 35869 ft 395 kts 240°
2026-05-09 01:39 50.60297 161.30394 35869 ft 395 kts 240°
2026-05-09 01:39 50.57172 161.23270 35869 ft 395 kts 240°
2026-05-09 01:40 50.54065 161.16208 35868 ft 394 kts 240°
2026-05-09 01:40 50.50944 161.09132 35869 ft 394 kts 240°
2026-05-09 01:41 50.47815 161.02059 35868 ft 394 kts 240°
2026-05-09 01:41 50.44689 160.95009 35867 ft 393 kts 240°
2026-05-09 01:42 50.41565 160.87983 35868 ft 392 kts 240°
2026-05-09 01:42 50.38446 160.80988 35867 ft 391 kts 240°
2026-05-09 01:43 50.35362 160.73972 35867 ft 390 kts 240°
2026-05-09 01:43 50.32246 160.67016 35866 ft 389 kts 240°
2026-05-09 01:44 50.29141 160.60140 35866 ft 389 kts 240°
2026-05-09 01:44 50.26021 160.53252 35866 ft 387 kts 239°
2026-05-09 01:45 50.22909 160.46393 35866 ft 386 kts 239°
2026-05-09 01:45 50.19807 160.39559 35865 ft 385 kts 239°
2026-05-09 01:46 50.16698 160.32767 35865 ft 384 kts 239°
2026-05-09 01:46 50.13584 160.26009 35865 ft 383 kts 239°
2026-05-09 01:47 50.10473 160.19274 35864 ft 383 kts 239°
2026-05-09 01:47 50.07354 160.12541 35864 ft 382 kts 239°
2026-05-09 01:48 50.04263 160.05881 35863 ft 382 kts 239°
2026-05-09 01:48 50.01150 159.99188 35863 ft 382 kts 239°
2026-05-09 01:49 49.98059 159.92471 35862 ft 382 kts 239°
2026-05-09 01:49 49.94976 159.85749 35862 ft 382 kts 239°
2026-05-09 01:50 49.91871 159.79060 35862 ft 382 kts 239°
2026-05-09 01:50 49.88775 159.72362 35862 ft 381 kts 239°
2026-05-09 01:51 49.85678 159.65694 35861 ft 381 kts 239°
2026-05-09 01:51 49.82574 159.59104 35860 ft 381 kts 239°
2026-05-09 01:52 49.79440 159.52482 35860 ft 381 kts 239°
2026-05-09 01:52 49.76301 159.45864 35860 ft 381 kts 239°
2026-05-09 01:53 49.73165 159.39261 35859 ft 381 kts 239°
2026-05-09 01:53 49.70022 159.32663 35858 ft 381 kts 238°
2026-05-09 01:54 49.66810 159.26136 35858 ft 381 kts 238°
2026-05-09 01:54 49.63597 159.19638 35858 ft 381 kts 238°
2026-05-09 01:55 49.60383 159.13154 35857 ft 380 kts 238°
2026-05-09 01:55 49.57165 159.06676 35857 ft 381 kts 238°
2026-05-09 01:56 49.53945 159.00209 35856 ft 380 kts 238°
2026-05-09 01:56 49.50749 158.93806 35855 ft 380 kts 237°
2026-05-09 01:57 49.47576 158.87320 35854 ft 379 kts 238°
2026-05-09 01:57 49.44394 158.80839 35854 ft 380 kts 238°
2026-05-09 01:58 49.41191 158.74375 35854 ft 380 kts 238°
2026-05-09 01:58 49.37973 158.67916 35853 ft 380 kts 237°
2026-05-09 01:59 49.34759 158.61491 35852 ft 379 kts 237°
2026-05-09 01:59 49.31549 158.55094 35851 ft 378 kts 237°
2026-05-09 02:00 49.28353 158.48742 35851 ft 379 kts 237°
2026-05-09 02:00 49.25125 158.42345 35844 ft 380 kts 237°
2026-05-09 02:01 49.21891 158.35951 35842 ft 380 kts 237°
2026-05-09 02:01 49.18657 158.29572 35841 ft 379 kts 237°
2026-05-09 02:02 49.15423 158.23210 35840 ft 379 kts 237°
2026-05-09 02:02 49.12189 158.16863 35839 ft 378 kts 237°
2026-05-09 02:03 49.08954 158.10528 35838 ft 378 kts 237°
2026-05-09 02:03 49.05722 158.04215 35837 ft 377 kts 237°
2026-05-09 02:04 49.02487 157.97908 35837 ft 377 kts 237°
2026-05-09 02:04 48.99274 157.91662 35836 ft 376 kts 236°
2026-05-09 02:05 48.96023 157.85356 35835 ft 376 kts 236°
2026-05-09 02:05 48.92811 157.79141 35833 ft 376 kts 236°
2026-05-09 02:06 48.89581 157.72904 35833 ft 375 kts 236°
2026-05-09 02:07 48.84734 157.63574 35831 ft 375 kts 236°
2026-05-09 02:07 48.81501 157.57368 35831 ft 375 kts 236°
2026-05-09 02:08 48.78263 157.51168 35829 ft 375 kts 236°
2026-05-09 02:08 48.75023 157.44977 35822 ft 374 kts 236°
2026-05-09 02:09 48.71789 157.38812 35820 ft 374 kts 236°
2026-05-09 02:09 48.68549 157.32649 35818 ft 374 kts 236°
2026-05-09 02:10 48.65327 157.26535 35817 ft 374 kts 236°
2026-05-09 02:10 48.62078 157.20385 35816 ft 374 kts 236°